Observation data for Tahoka on 11/15/2019      Previous  Date       Current Mesonet Observations  Soil Data  Daily Summary Page  Observations in Plain Language
KTAS 150600Z 21003KT 01/M02 A3043 RMK A01 T00101015  RH  083%=      5-min Rain = 0
KTAS 150601Z 21003KT 01/M02 A3043 RMK A01 T00091016  RH  083%=      5-min Rain = 0
KTAS 150602Z 21003KT 01/M02 A3043 RMK A01 T00091016  RH  083%=      5-min Rain = 0
KTAS 150603Z 21003KT 01/M02 A3043 RMK A01 T00081017  RH  084%=      5-min Rain = 0
KTAS 150604Z 21003KT 01/M02 A3043 RMK A01 T00071017  RH  084%=      5-min Rain = 0
KTAS 150605Z 21003KT 01/M02 A3043 RMK A01 T00071016  RH  084%=      5-min Rain = 0
KTAS 150606Z 21003KT 01/M02 A3043 RMK A01 T00071017  RH  084%=      5-min Rain = 0
KTAS 150607Z 21003KT 01/M02 A3043 RMK A01 T00061017  RH  085%=      5-min Rain = 0
KTAS 150608Z 21003KT 01/M02 A3043 RMK A01 T00061018  RH  084%=      5-min Rain = 0
KTAS 150609Z 21003KT 01/M02 A3043 RMK A01 T00051018  RH  084%=      5-min Rain = 0
KTAS 150610Z 21003KT 00/M02 A3043 RMK A01 T00041019  RH  084%=      5-min Rain = 0
KTAS 150611Z 21003KT 00/M02 A3043 RMK A01 T00031020  RH  085%=      5-min Rain = 0
KTAS 150612Z 21003KT 00/M02 A3043 RMK A01 T00031019  RH  085%=      5-min Rain = 0
KTAS 150613Z 21003KT 00/M02 A3043 RMK A01 T00021019  RH  085%=      5-min Rain = 0
KTAS 150614Z 21003KT 00/M02 A3043 RMK A01 T00021019  RH  086%=      5-min Rain = 0
KTAS 150615Z 21003KT 00/M02 A3043 RMK A01 T00031017  RH  086%=      5-min Rain = 0
KTAS 150616Z 21003KT 00/M02 A3043 RMK A01 T00031016  RH  087%=      5-min Rain = 0
KTAS 150617Z 21004KT 00/M02 A3043 RMK A01 T00041015  RH  087%=      5-min Rain = 0
KTAS 150618Z 21004KT 00/M02 A3043 RMK A01 T00041015  RH  087%=      5-min Rain = 0
KTAS 150619Z 21004KT 01/M01 A3043 RMK A01 T00051014  RH  087%=      5-min Rain = 0
KTAS 150620Z 21004KT 01/M01 A3043 RMK A01 T00051014  RH  087%=      5-min Rain = 0
KTAS 150621Z 21004KT 01/M02 A3043 RMK A01 T00051015  RH  086%=      5-min Rain = 0
KTAS 150622Z 21004KT 01/M02 A3043 RMK A01 T00051015  RH  086%=      5-min Rain = 0
KTAS 150623Z 21004KT 01/M02 A3043 RMK A01 T00051015  RH  086%=      5-min Rain = 0
KTAS 150624Z 21004KT 01/M02 A3043 RMK A01 T00051016  RH  086%=      5-min Rain = 0
KTAS 150625Z 21004KT 00/M02 A3043 RMK A01 T00041016  RH  086%=      5-min Rain = 0
KTAS 150626Z 21004KT 00/M02 A3043 RMK A01 T00041017  RH  086%=      5-min Rain = 0
KTAS 150627Z 22004KT 00/M02 A3043 RMK A01 T00031018  RH  086%=      5-min Rain = 0
KTAS 150628Z 22004KT 00/M02 A3043 RMK A01 T00011020  RH  086%=      5-min Rain = 0
KTAS 150629Z 22004KT 00/02 A3043 RMK A01 T00-00-21  RH  086%=      5-min Rain = 0
KTAS 150630Z 22004KT M00/M02 A3043 RMK A01 T10021023  RH  086%=      5-min Rain = 0
KTAS 150631Z 22004KT M00/M02 A3043 RMK A01 T10031024  RH  086%=      5-min Rain = 0
KTAS 150632Z 22004KT M00/M02 A3043 RMK A01 T10041024  RH  087%=      5-min Rain = 0
KTAS 150633Z 22004KT M00/M02 A3043 RMK A01 T10041022  RH  088%=      5-min Rain = 0
KTAS 150634Z 22004KT M00/M02 A3043 RMK A01 T10031020  RH  088%=      5-min Rain = 0
KTAS 150635Z 22004KT M00/M02 A3043 RMK A01 T10011018  RH  089%=      5-min Rain = 0
KTAS 150636Z 22005KT 00/02 A3043 RMK A01 T00-00-17  RH  088%=      5-min Rain = 0
KTAS 150637Z 22005KT 00/M02 A3043 RMK A01 T00011017  RH  088%=      5-min Rain = 0
KTAS 150638Z 22004KT 00/M02 A3043 RMK A01 T00021017  RH  088%=      5-min Rain = 0
KTAS 150639Z 22004KT 00/M02 A3043 RMK A01 T00021017  RH  087%=      5-min Rain = 0
KTAS 150640Z 22004KT 00/M02 A3043 RMK A01 T00021018  RH  086%=      5-min Rain = 0
KTAS 150641Z 22004KT 00/M02 A3043 RMK A01 T00011020  RH  086%=      5-min Rain = 0
KTAS 150642Z 22004KT 00/M02 A3043 RMK A01 T00011020  RH  086%=      5-min Rain = 0
KTAS 150643Z 22003KT 00/M02 A3043 RMK A01 T00011020  RH  086%=      5-min Rain = 0
KTAS 150644Z 22004KT 00/M02 A3043 RMK A01 T00011019  RH  086%=      5-min Rain = 0
KTAS 150645Z 22004KT 00/M02 A3043 RMK A01 T00021018  RH  087%=      5-min Rain = 0
KTAS 150646Z 22004KT 00/M02 A3043 RMK A01 T00021018  RH  087%=      5-min Rain = 0
KTAS 150647Z 22004KT 00/M02 A3043 RMK A01 T00031017  RH  086%=      5-min Rain = 0
KTAS 150648Z 22004KT 00/M02 A3043 RMK A01 T00031017  RH  086%=      5-min Rain = 0
KTAS 150649Z 22004KT 00/M02 A3043 RMK A01 T00031017  RH  086%=      5-min Rain = 0
KTAS 150650Z 22004KT 00/M02 A3043 RMK A01 T00041017  RH  086%=      5-min Rain = 0
KTAS 150651Z 22004KT 00/M02 A3043 RMK A01 T00041017  RH  086%=      5-min Rain = 0
KTAS 150652Z 22004KT 01/M02 A3043 RMK A01 T00051017  RH  086%=      5-min Rain = 0
KTAS 150653Z 22004KT 01/M02 A3043 RMK A01 T00051016  RH  085%=      5-min Rain = 0
KTAS 150654Z 22004KT 01/M02 A3043 RMK A01 T00051017  RH  085%=      5-min Rain = 0
KTAS 150655Z 22004KT 01/M02 A3043 RMK A01 T00051017  RH  085%=      5-min Rain = 0
KTAS 150656Z 22004KT 01/M02 A3043 RMK A01 T00051018  RH  085%=      5-min Rain = 0
KTAS 150657Z 22004KT 01/M02 A3043 RMK A01 T00051018  RH  085%=      5-min Rain = 0
KTAS 150658Z 22004KT 00/M02 A3043 RMK A01 T00041018  RH  085%=      5-min Rain = 0
KTAS 150659Z 22005KT 00/M02 A3043 RMK A01 T00041018  RH  085%=      5-min Rain = 0
KTAS 150700Z 22005KT 00/M02 A3043 RMK A01 T00031019  RH  085%=      5-min Rain = 0
KTAS 150701Z 22005KT 00/M02 A3043 RMK A01 T00031019  RH  085%=      5-min Rain = 0
KTAS 150702Z 23005KT 00/M02 A3043 RMK A01 T00031020  RH  085%=      5-min Rain = 0
KTAS 150703Z 24005KT 00/M02 A3043 RMK A01 T00021021  RH  085%=      5-min Rain = 0
KTAS 150704Z 24005KT 00/M02 A3043 RMK A01 T00011021  RH  085%=      5-min Rain = 0
KTAS 150705Z 24005KT 00/M02 A3043 RMK A01 T00011022  RH  085%=      5-min Rain = 0
KTAS 150706Z 24005KT 00/M02 A3043 RMK A01 T00011022  RH  085%=      5-min Rain = 0
KTAS 150707Z 24004KT M00/M02 A3043 RMK A01 T10011024  RH  085%=      5-min Rain = 0
KTAS 150708Z 24004KT M00/M03 A3043 RMK A01 T10031026  RH  084%=      5-min Rain = 0
KTAS 150709Z 24004KT M00/M03 A3043 RMK A01 T10041027  RH  085%=      5-min Rain = 0
KTAS 150710Z 24004KT M01/M03 A3043 RMK A01 T10051026  RH  085%=      5-min Rain = 0
KTAS 150711Z 24004KT M01/M03 A3043 RMK A01 T10051026  RH  086%=      5-min Rain = 0
KTAS 150712Z 24004KT M01/M03 A3043 RMK A01 T10051025  RH  087%=      5-min Rain = 0
KTAS 150713Z 24004KT M00/M02 A3043 RMK A01 T10041023  RH  087%=      5-min Rain = 0
KTAS 150714Z 24004KT M00/M02 A3043 RMK A01 T10041022  RH  088%=      5-min Rain = 0
KTAS 150715Z 24004KT M00/M02 A3043 RMK A01 T10041022  RH  087%=      5-min Rain = 0
KTAS 150716Z 24004KT M00/M02 A3043 RMK A01 T10031022  RH  087%=      5-min Rain = 0
KTAS 150717Z 24005KT M00/M02 A3043 RMK A01 T10021021  RH  087%=      5-min Rain = 0
KTAS 150718Z 24005KT M00/M02 A3043 RMK A01 T10021020  RH  087%=      5-min Rain = 0
KTAS 150719Z 24005KT M00/M02 A3043 RMK A01 T10011021  RH  087%=      5-min Rain = 0
KTAS 150720Z 24005KT M00/M02 A3043 RMK A01 T10011021  RH  086%=      5-min Rain = 0
KTAS 150721Z 24005KT M00/M02 A3043 RMK A01 T10011022  RH  086%=      5-min Rain = 0
KTAS 150722Z 24005KT M00/M02 A3043 RMK A01 T10021023  RH  086%=      5-min Rain = 0
KTAS 150723Z 24005KT M00/M02 A3042 RMK A01 T10031024  RH  086%=      5-min Rain = 0
KTAS 150724Z 24005KT M01/M03 A3042 RMK A01 T10051026  RH  086%=      5-min Rain = 0
KTAS 150725Z 24005KT M01/M03 A3043 RMK A01 T10061027  RH  086%=      5-min Rain = 0
KTAS 150726Z 24005KT M01/M03 A3043 RMK A01 T10071027  RH  086%=      5-min Rain = 0
KTAS 150727Z 24005KT M01/M03 A3043 RMK A01 T10071026  RH  087%=      5-min Rain = 0
KTAS 150728Z 24005KT M01/M03 A3043 RMK A01 T10071026  RH  087%=      5-min Rain = 0
KTAS 150729Z 24005KT M01/M03 A3043 RMK A01 T10071025  RH  088%=      5-min Rain = 0
KTAS 150730Z 24005KT M01/M02 A3043 RMK A01 T10061024  RH  088%=      5-min Rain = 0
KTAS 150731Z 24005KT M01/M02 A3042 RMK A01 T10061023  RH  088%=      5-min Rain = 0
KTAS 150732Z 24005KT M01/M02 A3042 RMK A01 T10061023  RH  088%=      5-min Rain = 0
KTAS 150733Z 24005KT M01/M02 A3042 RMK A01 T10061023  RH  088%=      5-min Rain = 0
KTAS 150734Z 25005KT M01/M02 A3042 RMK A01 T10051022  RH  088%=      5-min Rain = 0
KTAS 150735Z 25005KT M00/M02 A3042 RMK A01 T10041021  RH  089%=      5-min Rain = 0
KTAS 150736Z 25005KT M00/M02 A3042 RMK A01 T10041020  RH  088%=      5-min Rain = 0
KTAS 150737Z 25004KT M00/M02 A3042 RMK A01 T10031020  RH  088%=      5-min Rain = 0
KTAS 150738Z 25004KT M00/M02 A3042 RMK A01 T10031021  RH  088%=      5-min Rain = 0
KTAS 150739Z 25004KT M00/M02 A3042 RMK A01 T10031021  RH  088%=      5-min Rain = 0
KTAS 150740Z 25004KT M00/M02 A3042 RMK A01 T10031021  RH  088%=      5-min Rain = 0
KTAS 150741Z 25005KT M00/M02 A3042 RMK A01 T10041022  RH  087%=      5-min Rain = 0
KTAS 150742Z 25005KT M00/M02 A3042 RMK A01 T10041023  RH  087%=      5-min Rain = 0
KTAS 150743Z 25005KT M01/M02 A3042 RMK A01 T10051024  RH  087%=      5-min Rain = 0
KTAS 150744Z 25005KT M01/M02 A3042 RMK A01 T10061024  RH  087%=      5-min Rain = 0
KTAS 150745Z 25005KT M01/M02 A3042 RMK A01 T10061024  RH  088%=      5-min Rain = 0
KTAS 150746Z 25005KT M01/M02 A3042 RMK A01 T10061024  RH  088%=      5-min Rain = 0
KTAS 150747Z 25005KT M01/M02 A3042 RMK A01 T10061024  RH  088%=      5-min Rain = 0
KTAS 150748Z 25005KT M01/M02 A3042 RMK A01 T10071024  RH  088%=      5-min Rain = 0
KTAS 150749Z 25005KT M01/M02 A3042 RMK A01 T10071024  RH  088%=      5-min Rain = 0
KTAS 150750Z 25005KT M01/M02 A3042 RMK A01 T10071024  RH  088%=      5-min Rain = 0
KTAS 150751Z 25005KT M01/M02 A3042 RMK A01 T10071024  RH  088%=      5-min Rain = 0
KTAS 150752Z 25004KT M01/M03 A3042 RMK A01 T10081025  RH  088%=      5-min Rain = 0
KTAS 150753Z 25004KT M01/M03 A3042 RMK A01 T10081025  RH  088%=      5-min Rain = 0
KTAS 150754Z 26004KT M01/M03 A3042 RMK A01 T10081026  RH  088%=      5-min Rain = 0
KTAS 150755Z 26005KT M01/M03 A3042 RMK A01 T10081025  RH  088%=      5-min Rain = 0
KTAS 150756Z 26005KT M01/M03 A3042 RMK A01 T10081025  RH  089%=      5-min Rain = 0
KTAS 150757Z 26005KT M01/M02 A3042 RMK A01 T10071024  RH  089%=      5-min Rain = 0
KTAS 150758Z 25005KT M01/M02 A3042 RMK A01 T10071024  RH  088%=      5-min Rain = 0
KTAS 150759Z 25004KT M01/M02 A3042 RMK A01 T10071024  RH  088%=      5-min Rain = 0
KTAS 150800Z 25004KT M01/M02 A3042 RMK A01 T10071024  RH  088%=      5-min Rain = 0
KTAS 150801Z 26004KT M01/M03 A3042 RMK A01 T10081025  RH  088%=      5-min Rain = 0
KTAS 150802Z 26004KT M01/M03 A3042 RMK A01 T10081025  RH  088%=      5-min Rain = 0
KTAS 150803Z 26004KT M01/M02 A3042 RMK A01 T10071024  RH  088%=      5-min Rain = 0
KTAS 150804Z 26004KT M01/M02 A3042 RMK A01 T10061023  RH  088%=      5-min Rain = 0
KTAS 150805Z 26004KT M01/M02 A3042 RMK A01 T10061023  RH  088%=      5-min Rain = 0
KTAS 150806Z 26005KT M01/M02 A3042 RMK A01 T10061023  RH  088%=      5-min Rain = 0
KTAS 150807Z 26005KT M01/M02 A3042 RMK A01 T10061023  RH  088%=      5-min Rain = 0
KTAS 150808Z 26004KT M01/M02 A3042 RMK A01 T10061024  RH  088%=      5-min Rain = 0
KTAS 150809Z 26005KT M01/M02 A3042 RMK A01 T10061024  RH  087%=      5-min Rain = 0
KTAS 150810Z 25005KT M01/M02 A3042 RMK A01 T10061024  RH  087%=      5-min Rain = 0
KTAS 150811Z 25005KT M01/M03 A3042 RMK A01 T10061025  RH  087%=      5-min Rain = 0
KTAS 150812Z 25004KT M01/M03 A3042 RMK A01 T10061025  RH  087%=      5-min Rain = 0
KTAS 150813Z 26004KT M01/M03 A3042 RMK A01 T10061025  RH  087%=      5-min Rain = 0
KTAS 150814Z 26004KT M01/M03 A3042 RMK A01 T10061025  RH  088%=      5-min Rain = 0
KTAS 150815Z 26004KT M01/M02 A3042 RMK A01 T10061024  RH  088%=      5-min Rain = 0
KTAS 150816Z 26004KT M01/M02 A3042 RMK A01 T10061024  RH  088%=      5-min Rain = 0
KTAS 150817Z 26004KT M01/M02 A3042 RMK A01 T10061024  RH  088%=      5-min Rain = 0
KTAS 150818Z 26004KT M01/M02 A3042 RMK A01 T10061024  RH  088%=      5-min Rain = 0
KTAS 150819Z 25004KT M01/M02 A3042 RMK A01 T10061024  RH  088%=      5-min Rain = 0
KTAS 150820Z 25004KT M01/M02 A3042 RMK A01 T10061023  RH  088%=      5-min Rain = 0
KTAS 150821Z 26004KT M01/M02 A3042 RMK A01 T10061023  RH  088%=      5-min Rain = 0
KTAS 150822Z 26004KT M01/M02 A3042 RMK A01 T10061023  RH  088%=      5-min Rain = 0
KTAS 150823Z 26004KT M01/M02 A3042 RMK A01 T10061023  RH  088%=      5-min Rain = 0
KTAS 150824Z 26004KT M01/M02 A3042 RMK A01 T10061023  RH  088%=      5-min Rain = 0
KTAS 150825Z 26004KT M01/M02 A3041 RMK A01 T10051023  RH  088%=      5-min Rain = 0
KTAS 150826Z 26004KT M01/M02 A3041 RMK A01 T10051022  RH  088%=      5-min Rain = 0
KTAS 150827Z 26004KT M00/M02 A3041 RMK A01 T10041021  RH  089%=      5-min Rain = 0
KTAS 150828Z 26004KT M00/M02 A3041 RMK A01 T10041021  RH  089%=      5-min Rain = 0
KTAS 150829Z 26004KT M00/M02 A3041 RMK A01 T10041021  RH  088%=      5-min Rain = 0
KTAS 150830Z 26004KT M00/M02 A3041 RMK A01 T10041021  RH  088%=      5-min Rain = 0
KTAS 150831Z 26005KT M00/M02 A3041 RMK A01 T10041022  RH  088%=      5-min Rain = 0
KTAS 150832Z 26005KT M00/M02 A3041 RMK A01 T10041022  RH  088%=      5-min Rain = 0
KTAS 150833Z 26005KT M00/M02 A3041 RMK A01 T10041022  RH  088%=      5-min Rain = 0
KTAS 150834Z 26005KT M00/M02 A3041 RMK A01 T10041022  RH  088%=      5-min Rain = 0
KTAS 150835Z 26004KT M01/M02 A3041 RMK A01 T10051022  RH  088%=      5-min Rain = 0
KTAS 150836Z 26005KT M01/M02 A3041 RMK A01 T10061024  RH  088%=      5-min Rain = 0
KTAS 150837Z 26005KT M01/M02 A3041 RMK A01 T10061024  RH  088%=      5-min Rain = 0
KTAS 150838Z 26005KT M01/M02 A3041 RMK A01 T10061024  RH  088%=      5-min Rain = 0
KTAS 150839Z 26005KT M01/M02 A3041 RMK A01 T10061023  RH  088%=      5-min Rain = 0
KTAS 150840Z 26005KT M01/M02 A3041 RMK A01 T10061023  RH  088%=      5-min Rain = 0
KTAS 150841Z 26005KT M01/M02 A3041 RMK A01 T10071023  RH  088%=      5-min Rain = 0
KTAS 150842Z 26005KT M01/M02 A3041 RMK A01 T10071024  RH  088%=      5-min Rain = 0
KTAS 150843Z 26005KT M01/M02 A3041 RMK A01 T10071024  RH  089%=      5-min Rain = 0
KTAS 150844Z 26005KT M01/M02 A3041 RMK A01 T10071024  RH  089%=      5-min Rain = 0
KTAS 150845Z 26005KT M01/M02 A3041 RMK A01 T10081024  RH  089%=      5-min Rain = 0
KTAS 150846Z 25005KT M01/M03 A3041 RMK A01 T10081025  RH  089%=      5-min Rain = 0
KTAS 150847Z 25005KT M01/M03 A3041 RMK A01 T10081025  RH  089%=      5-min Rain = 0
KTAS 150848Z 25005KT M01/M02 A3041 RMK A01 T10081024  RH  089%=      5-min Rain = 0
KTAS 150849Z 25005KT M01/M02 A3041 RMK A01 T10081024  RH  089%=      5-min Rain = 0
KTAS 150850Z 25005KT M01/M02 A3041 RMK A01 T10071023  RH  089%=      5-min Rain = 0
KTAS 150851Z 25005KT M01/M02 A3041 RMK A01 T10071023  RH  089%=      5-min Rain = 0
KTAS 150852Z 25005KT M01/M02 A3041 RMK A01 T10071023  RH  089%=      5-min Rain = 0
KTAS 150853Z 25005KT M01/M02 A3041 RMK A01 T10061023  RH  089%=      5-min Rain = 0
KTAS 150854Z 25005KT M01/M02 A3041 RMK A01 T10061023  RH  089%=      5-min Rain = 0
KTAS 150855Z 25005KT M01/M02 A304 RMK A01 T10061023  RH  089%=      5-min Rain = 0
KTAS 150856Z 25005KT M01/M02 A304 RMK A01 T10061023  RH  089%=      5-min Rain = 0
KTAS 150857Z 26004KT M01/M02 A304 RMK A01 T10061023  RH  089%=      5-min Rain = 0
KTAS 150858Z 26004KT M01/M02 A304 RMK A01 T10061023  RH  089%=      5-min Rain = 0
KTAS 150859Z 26005KT M01/M02 A304 RMK A01 T10061023  RH  089%=      5-min Rain = 0
KTAS 150900Z 26005KT M01/M02 A304 RMK A01 T10061023  RH  089%=      5-min Rain = 0
KTAS 150901Z 26005KT M01/M02 A304 RMK A01 T10061022  RH  089%=      5-min Rain = 0
KTAS 150902Z 26005KT M01/M02 A304 RMK A01 T10051021  RH  089%=      5-min Rain = 0
KTAS 150903Z 26004KT M00/M02 A304 RMK A01 T10041020  RH  089%=      5-min Rain = 0
KTAS 150904Z 26004KT M00/M02 A304 RMK A01 T10041019  RH  089%=      5-min Rain = 0
KTAS 150905Z 26004KT M00/M02 A304 RMK A01 T10031019  RH  089%=      5-min Rain = 0
KTAS 150906Z 26004KT M00/M02 A304 RMK A01 T10031019  RH  089%=      5-min Rain = 0
KTAS 150907Z 26004KT M00/M02 A304 RMK A01 T10021019  RH  089%=      5-min Rain = 0
KTAS 150908Z 26005KT M00/M02 A304 RMK A01 T10021018  RH  089%=      5-min Rain = 0
KTAS 150909Z 25005KT M00/M02 A304 RMK A01 T10011018  RH  089%=      5-min Rain = 0
KTAS 150910Z 25004KT M00/M02 A304 RMK A01 T10011018  RH  088%=      5-min Rain = 0
KTAS 150911Z 25004KT M00/M02 A304 RMK A01 T10021019  RH  088%=      5-min Rain = 0
KTAS 150912Z 25004KT M00/M02 A304 RMK A01 T10021020  RH  088%=      5-min Rain = 0
KTAS 150913Z 25004KT M00/M02 A304 RMK A01 T10031020  RH  088%=      5-min Rain = 0
KTAS 150914Z 25004KT M00/M02 A304 RMK A01 T10031020  RH  088%=      5-min Rain = 0
KTAS 150915Z 25003KT M00/M02 A304 RMK A01 T10031021  RH  088%=      5-min Rain = 0
KTAS 150916Z 25003KT M00/M02 A304 RMK A01 T10041021  RH  088%=      5-min Rain = 0
KTAS 150917Z 25003KT M00/M02 A304 RMK A01 T10041022  RH  088%=      5-min Rain = 0
KTAS 150918Z 25004KT M00/M02 A304 RMK A01 T10041022  RH  088%=      5-min Rain = 0
KTAS 150919Z 25003KT M00/M02 A304 RMK A01 T10041021  RH  088%=      5-min Rain = 0
KTAS 150920Z 25003KT M01/M02 A304 RMK A01 T10051021  RH  088%=      5-min Rain = 0
KTAS 150921Z 25003KT M01/M02 A304 RMK A01 T10051022  RH  089%=      5-min Rain = 0
KTAS 150922Z 25004KT M01/M02 A304 RMK A01 T10051021  RH  089%=      5-min Rain = 0
KTAS 150923Z 25004KT M00/M02 A304 RMK A01 T10041021  RH  089%=      5-min Rain = 0
KTAS 150924Z 25004KT M00/M02 A304 RMK A01 T10041020  RH  089%=      5-min Rain = 0
KTAS 150925Z 25004KT M00/M02 A304 RMK A01 T10041020  RH  089%=      5-min Rain = 0
KTAS 150926Z 25004KT M00/M02 A304 RMK A01 T10041019  RH  089%=      5-min Rain = 0
KTAS 150927Z 25004KT M00/M02 A304 RMK A01 T10031018  RH  089%=      5-min Rain = 0
KTAS 150928Z 25004KT M00/M02 A304 RMK A01 T10021018  RH  089%=      5-min Rain = 0
KTAS 150929Z 25004KT M00/M02 A304 RMK A01 T10021018  RH  089%=      5-min Rain = 0
KTAS 150930Z 25004KT M00/M02 A3039 RMK A01 T10021018  RH  089%=      5-min Rain = 0
KTAS 150931Z 25004KT M00/M02 A3039 RMK A01 T10021019  RH  088%=      5-min Rain = 0
KTAS 150932Z 25003KT M00/M02 A3039 RMK A01 T10021020  RH  088%=      5-min Rain = 0
KTAS 150933Z 25003KT M00/M02 A3039 RMK A01 T10021020  RH  088%=      5-min Rain = 0
KTAS 150934Z 25004KT M00/M02 A3039 RMK A01 T10021020  RH  088%=      5-min Rain = 0
KTAS 150935Z 25004KT M00/M02 A3039 RMK A01 T10021020  RH  088%=      5-min Rain = 0
KTAS 150936Z 25003KT M00/M02 A3039 RMK A01 T10031020  RH  088%=      5-min Rain = 0
KTAS 150937Z 25004KT M00/M02 A3039 RMK A01 T10031021  RH  088%=      5-min Rain = 0
KTAS 150938Z 25003KT M00/M02 A3039 RMK A01 T10031021  RH  088%=      5-min Rain = 0
KTAS 150939Z 25003KT M00/M02 A3039 RMK A01 T10041021  RH  088%=      5-min Rain = 0
KTAS 150940Z 25003KT M00/M02 A3039 RMK A01 T10041022  RH  088%=      5-min Rain = 0
KTAS 150941Z 25003KT M00/M02 A3039 RMK A01 T10041022  RH  088%=      5-min Rain = 0
KTAS 150942Z 25003KT M00/M02 A3039 RMK A01 T10041021  RH  088%=      5-min Rain = 0
KTAS 150943Z 25003KT M00/M02 A3039 RMK A01 T10041020  RH  089%=      5-min Rain = 0
KTAS 150944Z 25003KT M00/M02 A3039 RMK A01 T10031019  RH  089%=      5-min Rain = 0
KTAS 150945Z 26003KT M00/M02 A3039 RMK A01 T10031019  RH  089%=      5-min Rain = 0
KTAS 150946Z 26003KT M00/M02 A3039 RMK A01 T10031020  RH  088%=      5-min Rain = 0
KTAS 150947Z 26004KT M00/M02 A3039 RMK A01 T10041021  RH  088%=      5-min Rain = 0
KTAS 150948Z 26003KT M01/M02 A3039 RMK A01 T10051022  RH  088%=      5-min Rain = 0
KTAS 150949Z 26003KT M01/M02 A3039 RMK A01 T10061023  RH  088%=      5-min Rain = 0
KTAS 150950Z 26003KT M01/M02 A3039 RMK A01 T10071024  RH  088%=      5-min Rain = 0
KTAS 150951Z 26003KT M01/M03 A3039 RMK A01 T10071025  RH  088%=      5-min Rain = 0
KTAS 150952Z 26003KT M01/M03 A3039 RMK A01 T10081025  RH  088%=      5-min Rain = 0
KTAS 150953Z 26003KT M01/M02 A3039 RMK A01 T10081024  RH  089%=      5-min Rain = 0
KTAS 150954Z 26003KT M01/M02 A3039 RMK A01 T10081023  RH  089%=      5-min Rain = 0
KTAS 150955Z 26002KT M01/M02 A3039 RMK A01 T10081024  RH  089%=      5-min Rain = 0
KTAS 150956Z 26002KT M01/M03 A3039 RMK A01 T10091025  RH  089%=      5-min Rain = 0
KTAS 150957Z 26002KT M01/M03 A3039 RMK A01 T10101026  RH  089%=      5-min Rain = 0
KTAS 150958Z 26002KT M01/M03 A3039 RMK A01 T10121028  RH  089%=      5-min Rain = 0
KTAS 150959Z 26002KT M01/M03 A3039 RMK A01 T10121028  RH  089%=      5-min Rain = 0
KTAS 151000Z 26003KT M01/M03 A3039 RMK A01 T10131028  RH  090%=      5-min Rain = 0
KTAS 151001Z 26003KT M01/M03 A3039 RMK A01 T10131028  RH  090%=      5-min Rain = 0
KTAS 151002Z 26003KT M01/M03 A3039 RMK A01 T10131027  RH  090%=      5-min Rain = 0
KTAS 151003Z 26003KT M01/M03 A3039 RMK A01 T10131026  RH  091%=      5-min Rain = 0
KTAS 151004Z 26003KT M01/M03 A3039 RMK A01 T10141027  RH  091%=      5-min Rain = 0
KTAS 151005Z 26003KT M01/M03 A3039 RMK A01 T10141026  RH  091%=      5-min Rain = 0
KTAS 151006Z 26003KT M01/M03 A3039 RMK A01 T10141026  RH  091%=      5-min Rain = 0
KTAS 151007Z 26003KT M01/M03 A3039 RMK A01 T10141026  RH  092%=      5-min Rain = 0
KTAS 151008Z 26003KT M01/M03 A3039 RMK A01 T10141026  RH  092%=      5-min Rain = 0
KTAS 151009Z 26003KT M01/M03 A3039 RMK A01 T10141026  RH  092%=      5-min Rain = 0
KTAS 151010Z 26003KT M02/M03 A3039 RMK A01 T10151027  RH  092%=      5-min Rain = 0
KTAS 151011Z 26003KT M02/M03 A3039 RMK A01 T10161028  RH  092%=      5-min Rain = 0
KTAS 151012Z 26003KT M02/M03 A3039 RMK A01 T10161028  RH  092%=      5-min Rain = 0
KTAS 151013Z 26003KT M02/M03 A3039 RMK A01 T10171029  RH  092%=      5-min Rain = 0
KTAS 151014Z 26003KT M02/M03 A3039 RMK A01 T10181030  RH  092%=      5-min Rain = 0
KTAS 151015Z 26003KT M02/M03 A3039 RMK A01 T10181030  RH  092%=      5-min Rain = 0
KTAS 151016Z 26003KT M02/M03 A3039 RMK A01 T10191030  RH  092%=      5-min Rain = 0
KTAS 151017Z 26003KT M02/M03 A3039 RMK A01 T10191030  RH  092%=      5-min Rain = 0
KTAS 151018Z 26003KT M02/M03 A3039 RMK A01 T10191031  RH  092%=      5-min Rain = 0
KTAS 151019Z 26003KT M02/M03 A3039 RMK A01 T10201031  RH  092%=      5-min Rain = 0
KTAS 151020Z 26003KT M02/M03 A3039 RMK A01 T10201031  RH  092%=      5-min Rain = 0
KTAS 151021Z 26003KT M02/M03 A3039 RMK A01 T10201031  RH  092%=      5-min Rain = 0
KTAS 151022Z 26003KT M02/M03 A3039 RMK A01 T10201031  RH  092%=      5-min Rain = 0
KTAS 151023Z 26003KT M02/M03 A3039 RMK A01 T10201030  RH  092%=      5-min Rain = 0
KTAS 151024Z 26004KT M02/M03 A3039 RMK A01 T10201031  RH  092%=      5-min Rain = 0
KTAS 151025Z 26004KT M02/M03 A3039 RMK A01 T10201031  RH  092%=      5-min Rain = 0
KTAS 151026Z 26004KT M02/M03 A3039 RMK A01 T10211032  RH  092%=      5-min Rain = 0
KTAS 151027Z 27004KT M02/M03 A3039 RMK A01 T10211033  RH  092%=      5-min Rain = 0
KTAS 151028Z 27004KT M02/M03 A3039 RMK A01 T10211033  RH  092%=      5-min Rain = 0
KTAS 151029Z 27004KT M02/M03 A3039 RMK A01 T10221033  RH  092%=      5-min Rain = 0
KTAS 151030Z 27004KT M02/M03 A3039 RMK A01 T10221033  RH  092%=      5-min Rain = 0
KTAS 151031Z 27003KT M02/M03 A3039 RMK A01 T10221033  RH  092%=      5-min Rain = 0
KTAS 151032Z 27003KT M02/M03 A3038 RMK A01 T10211032  RH  092%=      5-min Rain = 0
KTAS 151033Z 27003KT M02/M03 A3038 RMK A01 T10201031  RH  092%=      5-min Rain = 0
KTAS 151034Z 27003KT M02/M03 A3038 RMK A01 T10201031  RH  092%=      5-min Rain = 0
KTAS 151035Z 27003KT M02/M03 A3039 RMK A01 T10201031  RH  092%=      5-min Rain = 0
KTAS 151036Z 27003KT M02/M03 A3039 RMK A01 T10201031  RH  092%=      5-min Rain = 0
KTAS 151037Z 27003KT M02/M03 A3038 RMK A01 T10191030  RH  092%=      5-min Rain = 0
KTAS 151038Z 27004KT M02/M03 A3038 RMK A01 T10181029  RH  092%=      5-min Rain = 0
KTAS 151039Z 27004KT M02/M03 A3038 RMK A01 T10181029  RH  092%=      5-min Rain = 0
KTAS 151040Z 27003KT M02/M03 A3038 RMK A01 T10171028  RH  092%=      5-min Rain = 0
KTAS 151041Z 27003KT M02/M03 A3038 RMK A01 T10171028  RH  092%=      5-min Rain = 0
KTAS 151042Z 27003KT M02/M03 A3038 RMK A01 T10161028  RH  092%=      5-min Rain = 0
KTAS 151043Z 27003KT M02/M03 A3038 RMK A01 T10161028  RH  092%=      5-min Rain = 0
KTAS 151044Z 27003KT M02/M03 A3038 RMK A01 T10161028  RH  092%=      5-min Rain = 0
KTAS 151045Z 27003KT M02/M03 A3038 RMK A01 T10151027  RH  091%=      5-min Rain = 0
KTAS 151046Z 27003KT M02/M03 A3038 RMK A01 T10151028  RH  091%=      5-min Rain = 0
KTAS 151047Z 27003KT M01/M03 A3038 RMK A01 T10141027  RH  091%=      5-min Rain = 0
KTAS 151048Z 27003KT M01/M03 A3038 RMK A01 T10141026  RH  091%=      5-min Rain = 0
KTAS 151049Z 27003KT M01/M03 A3038 RMK A01 T10131026  RH  091%=      5-min Rain = 0
KTAS 151050Z 27003KT M01/M03 A3038 RMK A01 T10131026  RH  091%=      5-min Rain = 0
KTAS 151051Z 27003KT M01/M03 A3038 RMK A01 T10131026  RH  091%=      5-min Rain = 0
KTAS 151052Z 27003KT M01/M03 A3038 RMK A01 T10121026  RH  091%=      5-min Rain = 0
KTAS 151053Z 27003KT M01/M03 A3038 RMK A01 T10131026  RH  091%=      5-min Rain = 0
KTAS 151054Z 27003KT M01/M03 A3038 RMK A01 T10131027  RH  090%=      5-min Rain = 0
KTAS 151055Z 27003KT M01/M03 A3038 RMK A01 T10141028  RH  090%=      5-min Rain = 0
KTAS 151056Z 27003KT M01/M03 A3038 RMK A01 T10141028  RH  090%=      5-min Rain = 0
KTAS 151057Z 27003KT M01/M03 A3038 RMK A01 T10141028  RH  090%=      5-min Rain = 0
KTAS 151058Z 27003KT M01/M03 A3038 RMK A01 T10141028  RH  090%=      5-min Rain = 0
KTAS 151059Z 27003KT M01/M03 A3038 RMK A01 T10141028  RH  090%=      5-min Rain = 0
KTAS 151100Z 27003KT M01/M03 A3038 RMK A01 T10141028  RH  090%=      5-min Rain = 0
KTAS 151101Z 27003KT M01/M03 A3038 RMK A01 T10141028  RH  090%=      5-min Rain = 0
KTAS 151102Z 27003KT M01/M03 A3038 RMK A01 T10141028  RH  090%=      5-min Rain = 0
KTAS 151103Z 27003KT M01/M03 A3038 RMK A01 T10141028  RH  090%=      5-min Rain = 0
KTAS 151104Z 27003KT M01/M03 A3038 RMK A01 T10141028  RH  090%=      5-min Rain = 0
KTAS 151105Z 27003KT M02/M03 A3038 RMK A01 T10151029  RH  090%=      5-min Rain = 0
KTAS 151106Z 27003KT M02/M03 A3038 RMK A01 T10151028  RH  091%=      5-min Rain = 0
KTAS 151107Z 27004KT M02/M03 A3038 RMK A01 T10151028  RH  091%=      5-min Rain = 0
KTAS 151108Z 27004KT M02/M03 A3038 RMK A01 T10151028  RH  091%=      5-min Rain = 0
KTAS 151109Z 27004KT M02/M03 A3038 RMK A01 T10161029  RH  090%=      5-min Rain = 0
KTAS 151110Z 27004KT M02/M03 A3038 RMK A01 T10171031  RH  090%=      5-min Rain = 0
KTAS 151111Z 27004KT M02/M03 A3038 RMK A01 T10171032  RH  090%=      5-min Rain = 0
KTAS 151112Z 27004KT M02/M03 A3038 RMK A01 T10191033  RH  090%=      5-min Rain = 0
KTAS 151113Z 27004KT M02/M03 A3038 RMK A01 T10191033  RH  090%=      5-min Rain = 0
KTAS 151114Z 27004KT M02/M03 A3038 RMK A01 T10191033  RH  090%=      5-min Rain = 0
KTAS 151115Z 27004KT M02/M03 A3038 RMK A01 T10201033  RH  091%=      5-min Rain = 0
KTAS 151116Z 27004KT M02/M03 A3038 RMK A01 T10201033  RH  091%=      5-min Rain = 0
KTAS 151117Z 27004KT M02/M03 A3038 RMK A01 T10191032  RH  091%=      5-min Rain = 0
KTAS 151118Z 27004KT M02/M03 A3038 RMK A01 T10201032  RH  091%=      5-min Rain = 0
KTAS 151119Z 27004KT M02/M03 A3038 RMK A01 T10201032  RH  091%=      5-min Rain = 0
KTAS 151120Z 27004KT M02/M03 A3038 RMK A01 T10201033  RH  091%=      5-min Rain = 0
KTAS 151121Z 27004KT M02/M03 A3038 RMK A01 T10211033  RH  091%=      5-min Rain = 0
KTAS 151122Z 27004KT M02/M03 A3038 RMK A01 T10211034  RH  091%=      5-min Rain = 0
KTAS 151123Z 27004KT M02/M04 A3038 RMK A01 T10221035  RH  091%=      5-min Rain = 0
KTAS 151124Z 27004KT M02/M04 A3038 RMK A01 T10221035  RH  091%=      5-min Rain = 0
KTAS 151125Z 27004KT M02/M04 A3038 RMK A01 T10221035  RH  091%=      5-min Rain = 0
KTAS 151126Z 27004KT M02/M03 A3038 RMK A01 T10211034  RH  091%=      5-min Rain = 0
KTAS 151127Z 27004KT M02/M03 A3038 RMK A01 T10201032  RH  092%=      5-min Rain = 0
KTAS 151128Z 27004KT M02/M03 A3038 RMK A01 T10201031  RH  092%=      5-min Rain = 0
KTAS 151129Z 27004KT M02/M03 A3038 RMK A01 T10191030  RH  092%=      5-min Rain = 0
KTAS 151130Z 27004KT M02/M03 A3038 RMK A01 T10181029  RH  092%=      5-min Rain = 0
KTAS 151131Z 27004KT M02/M03 A3038 RMK A01 T10181029  RH  092%=      5-min Rain = 0
KTAS 151132Z 27004KT M02/M03 A3038 RMK A01 T10171029  RH  092%=      5-min Rain = 0
KTAS 151133Z 27004KT M02/M03 A3038 RMK A01 T10171029  RH  092%=      5-min Rain = 0
KTAS 151134Z 27004KT M02/M03 A3038 RMK A01 T10181030  RH  092%=      5-min Rain = 0
KTAS 151135Z 27004KT M02/M03 A3038 RMK A01 T10181030  RH  091%=      5-min Rain = 0
KTAS 151136Z 27004KT M02/M03 A3037 RMK A01 T10181031  RH  091%=      5-min Rain = 0
KTAS 151137Z 27004KT M02/M03 A3037 RMK A01 T10181031  RH  091%=      5-min Rain = 0
KTAS 151138Z 27004KT M02/M03 A3037 RMK A01 T10181031  RH  091%=      5-min Rain = 0
KTAS 151139Z 27004KT M02/M03 A3037 RMK A01 T10181030  RH  091%=      5-min Rain = 0
KTAS 151140Z 27004KT M02/M03 A3037 RMK A01 T10181030  RH  091%=      5-min Rain = 0
KTAS 151141Z 27003KT M02/M03 A3037 RMK A01 T10181030  RH  091%=      5-min Rain = 0
KTAS 151142Z 27003KT M02/M03 A3037 RMK A01 T10181031  RH  091%=      5-min Rain = 0
KTAS 151143Z 27003KT M02/M03 A3037 RMK A01 T10181031  RH  091%=      5-min Rain = 0
KTAS 151144Z 27004KT M02/M03 A3037 RMK A01 T10181031  RH  091%=      5-min Rain = 0
KTAS 151145Z 27004KT M02/M03 A3037 RMK A01 T10181031  RH  091%=      5-min Rain = 0
KTAS 151146Z 27004KT M02/M03 A3037 RMK A01 T10181031  RH  091%=      5-min Rain = 0
KTAS 151147Z 27004KT M02/M03 A3037 RMK A01 T10181031  RH  091%=      5-min Rain = 0
KTAS 151148Z 27004KT M02/M03 A3037 RMK A01 T10191031  RH  091%=      5-min Rain = 0
KTAS 151149Z 27004KT M02/M03 A3037 RMK A01 T10191032  RH  091%=      5-min Rain = 0
KTAS 151150Z 27004KT M02/M03 A3037 RMK A01 T10191032  RH  091%=      5-min Rain = 0
KTAS 151151Z 27004KT M02/M03 A3037 RMK A01 T10201033  RH  091%=      5-min Rain = 0
KTAS 151152Z 27004KT M02/M03 A3037 RMK A01 T10201033  RH  091%=      5-min Rain = 0
KTAS 151153Z 27004KT M02/M03 A3037 RMK A01 T10201033  RH  091%=      5-min Rain = 0
KTAS 151154Z 27004KT M02/M03 A3038 RMK A01 T10201033  RH  091%=      5-min Rain = 0
KTAS 151155Z 27004KT M02/M03 A3038 RMK A01 T10211033  RH  091%=      5-min Rain = 0
KTAS 151156Z 27004KT M02/M03 A3038 RMK A01 T10211033  RH  091%=      5-min Rain = 0
KTAS 151157Z 27004KT M02/M03 A3038 RMK A01 T10211033  RH  091%=      5-min Rain = 0
KTAS 151158Z 27004KT M02/M03 A3038 RMK A01 T10201032  RH  092%=      5-min Rain = 0
KTAS 151159Z 27004KT M02/M03 A3038 RMK A01 T10201031  RH  092%=      5-min Rain = 0
KTAS 151200Z 27004KT M02/M03 A3038 RMK A01 T10191030  RH  092%=      5-min Rain = 0
KTAS 151201Z 27004KT M02/M03 A3038 RMK A01 T10191030  RH  092%=      5-min Rain = 0
KTAS 151202Z 27005KT M02/M03 A3038 RMK A01 T10191030  RH  092%=      5-min Rain = 0
KTAS 151203Z 27005KT M02/M03 A3038 RMK A01 T10201031  RH  092%=      5-min Rain = 0
KTAS 151204Z 27005KT M02/M03 A3038 RMK A01 T10211033  RH  091%=      5-min Rain = 0
KTAS 151205Z 27005KT M02/M03 A3038 RMK A01 T10211033  RH  091%=      5-min Rain = 0
KTAS 151206Z 27005KT M02/M03 A3038 RMK A01 T10211034  RH  091%=      5-min Rain = 0
KTAS 151207Z 27004KT M02/M03 A3038 RMK A01 T10211034  RH  091%=      5-min Rain = 0
KTAS 151208Z 27004KT M02/M03 A3038 RMK A01 T10221034  RH  091%=      5-min Rain = 0
KTAS 151209Z 27004KT M02/M03 A3038 RMK A01 T10211033  RH  091%=      5-min Rain = 0
KTAS 151210Z 27004KT M02/M03 A3038 RMK A01 T10211033  RH  091%=      5-min Rain = 0
KTAS 151211Z 27004KT M02/M03 A3038 RMK A01 T10211033  RH  091%=      5-min Rain = 0
KTAS 151212Z 27004KT M02/M03 A3038 RMK A01 T10211033  RH  091%=      5-min Rain = 0
KTAS 151213Z 27004KT M02/M03 A3038 RMK A01 T10211033  RH  091%=      5-min Rain = 0
KTAS 151214Z 27004KT M02/M03 A3038 RMK A01 T10211034  RH  091%=      5-min Rain = 0
KTAS 151215Z 27004KT M02/M04 A3038 RMK A01 T10221035  RH  091%=      5-min Rain = 0
KTAS 151216Z 27004KT M02/M04 A3038 RMK A01 T10221035  RH  091%=      5-min Rain = 0
KTAS 151217Z 27004KT M02/M04 A3038 RMK A01 T10221035  RH  091%=      5-min Rain = 0
KTAS 151218Z 27004KT M02/M03 A3038 RMK A01 T10221034  RH  091%=      5-min Rain = 0
KTAS 151219Z 27004KT M02/M03 A3038 RMK A01 T10211034  RH  091%=      5-min Rain = 0
KTAS 151220Z 27004KT M02/M03 A3038 RMK A01 T10211033  RH  091%=      5-min Rain = 0
KTAS 151221Z 27004KT M02/M03 A3038 RMK A01 T10211033  RH  091%=      5-min Rain = 0
KTAS 151222Z 27004KT M02/M03 A3038 RMK A01 T10201032  RH  091%=      5-min Rain = 0
KTAS 151223Z 27004KT M02/M03 A3038 RMK A01 T10201032  RH  092%=      5-min Rain = 0
KTAS 151224Z 27004KT M02/M03 A3038 RMK A01 T10191031  RH  092%=      5-min Rain = 0
KTAS 151225Z 27004KT M02/M03 A3038 RMK A01 T10191031  RH  092%=      5-min Rain = 0
KTAS 151226Z 27004KT M02/M03 A3038 RMK A01 T10191031  RH  092%=      5-min Rain = 0
KTAS 151227Z 26004KT M02/M03 A3038 RMK A01 T10191031  RH  091%=      5-min Rain = 0
KTAS 151228Z 26005KT M02/M03 A3038 RMK A01 T10181030  RH  091%=      5-min Rain = 0
KTAS 151229Z 26005KT M02/M03 A3038 RMK A01 T10181030  RH  092%=      5-min Rain = 0
KTAS 151230Z 26004KT M02/M03 A3038 RMK A01 T10171028  RH  092%=      5-min Rain = 0
KTAS 151231Z 26004KT M02/M03 A3038 RMK A01 T10151027  RH  092%=      5-min Rain = 0
KTAS 151232Z 26004KT M02/M03 A3038 RMK A01 T10151027  RH  092%=      5-min Rain = 0
KTAS 151233Z 26004KT M02/M03 A3038 RMK A01 T10151028  RH  091%=      5-min Rain = 0
KTAS 151234Z 26004KT M02/M03 A3038 RMK A01 T10151028  RH  091%=      5-min Rain = 0
KTAS 151235Z 26004KT M02/M03 A3038 RMK A01 T10151029  RH  091%=      5-min Rain = 0
KTAS 151236Z 26004KT M02/M03 A3038 RMK A01 T10151029  RH  091%=      5-min Rain = 0
KTAS 151237Z 26004KT M02/M03 A3038 RMK A01 T10151029  RH  091%=      5-min Rain = 0
KTAS 151238Z 27004KT M02/M03 A3038 RMK A01 T10151028  RH  090%=      5-min Rain = 0
KTAS 151239Z 27004KT M02/M03 A3038 RMK A01 T10151029  RH  090%=      5-min Rain = 0
KTAS 151240Z 27004KT M02/M03 A3038 RMK A01 T10151029  RH  090%=      5-min Rain = 0
KTAS 151241Z 27004KT M02/M03 A3038 RMK A01 T10151029  RH  090%=      5-min Rain = 0
KTAS 151242Z 27004KT M02/M03 A3038 RMK A01 T10151029  RH  090%=      5-min Rain = 0
KTAS 151243Z 27004KT M02/M03 A3038 RMK A01 T10151029  RH  090%=      5-min Rain = 0
KTAS 151244Z 27004KT M02/M03 A3038 RMK A01 T10161030  RH  090%=      5-min Rain = 0
KTAS 151245Z 27004KT M02/M03 A3038 RMK A01 T10161031  RH  090%=      5-min Rain = 0
KTAS 151246Z 27004KT M02/M03 A3038 RMK A01 T10171032  RH  090%=      5-min Rain = 0
KTAS 151247Z 27004KT M02/M03 A3038 RMK A01 T10181033  RH  090%=      5-min Rain = 0
KTAS 151248Z 27003KT M02/M03 A3038 RMK A01 T10191034  RH  089%=      5-min Rain = 0
KTAS 151249Z 27004KT M02/M04 A3038 RMK A01 T10201035  RH  090%=      5-min Rain = 0
KTAS 151250Z 27004KT M02/M04 A3038 RMK A01 T10201035  RH  090%=      5-min Rain = 0
KTAS 151251Z 27004KT M02/M04 A3038 RMK A01 T10201035  RH  090%=      5-min Rain = 0
KTAS 151252Z 27004KT M02/M03 A3038 RMK A01 T10201034  RH  090%=      5-min Rain = 0
KTAS 151253Z 27003KT M02/M03 A3038 RMK A01 T10201033  RH  090%=      5-min Rain = 0
KTAS 151254Z 27003KT M02/M03 A3038 RMK A01 T10201033  RH  090%=      5-min Rain = 0
KTAS 151255Z 27003KT M02/M03 A3038 RMK A01 T10201033  RH  091%=      5-min Rain = 0
KTAS 151256Z 27003KT M02/M03 A3038 RMK A01 T10191032  RH  091%=      5-min Rain = 0
KTAS 151257Z 27003KT M02/M03 A3038 RMK A01 T10181031  RH  091%=      5-min Rain = 0
KTAS 151258Z 27003KT M02/M03 A3038 RMK A01 T10181030  RH  091%=      5-min Rain = 0
KTAS 151259Z 27003KT M02/M03 A3038 RMK A01 T10171029  RH  091%=      5-min Rain = 0
KTAS 151300Z 27004KT M02/M03 A3038 RMK A01 T10161029  RH  091%=      5-min Rain = 0
KTAS 151301Z 27004KT M02/M03 A3038 RMK A01 T10171030  RH  091%=      5-min Rain = 0
KTAS 151302Z 27004KT M02/M03 A3038 RMK A01 T10171030  RH  091%=      5-min Rain = 0
KTAS 151303Z 27004KT M02/M03 A3038 RMK A01 T10181031  RH  091%=      5-min Rain = 0
KTAS 151304Z 27004KT M02/M03 A3038 RMK A01 T10181031  RH  091%=      5-min Rain = 0
KTAS 151305Z 27003KT M02/M03 A3038 RMK A01 T10181031  RH  091%=      5-min Rain = 0
KTAS 151306Z 27003KT M02/M03 A3038 RMK A01 T10181032  RH  091%=      5-min Rain = 0
KTAS 151307Z 27003KT M02/M03 A3038 RMK A01 T10181032  RH  091%=      5-min Rain = 0
KTAS 151308Z 27003KT M02/M03 A3038 RMK A01 T10181031  RH  091%=      5-min Rain = 0
KTAS 151309Z 27003KT M02/M03 A3038 RMK A01 T10171030  RH  091%=      5-min Rain = 0
KTAS 151310Z 27003KT M02/M03 A3038 RMK A01 T10161029  RH  091%=      5-min Rain = 0
KTAS 151311Z 27003KT M02/M03 A3038 RMK A01 T10161029  RH  091%=      5-min Rain = 0
KTAS 151312Z 27003KT M02/M03 A3038 RMK A01 T10161029  RH  091%=      5-min Rain = 0
KTAS 151313Z 27003KT M02/M03 A3038 RMK A01 T10171030  RH  091%=      5-min Rain = 0
KTAS 151314Z 27003KT M02/M03 A3038 RMK A01 T10181031  RH  091%=      5-min Rain = 0
KTAS 151315Z 27003KT M02/M03 A3038 RMK A01 T10191032  RH  090%=      5-min Rain = 0
KTAS 151316Z 27003KT M02/M03 A3038 RMK A01 T10191033  RH  090%=      5-min Rain = 0
KTAS 151317Z 27003KT M02/M03 A3038 RMK A01 T10201033  RH  090%=      5-min Rain = 0
KTAS 151318Z 27003KT M02/M03 A3038 RMK A01 T10201033  RH  091%=      5-min Rain = 0
KTAS 151319Z 27003KT M02/M03 A3038 RMK A01 T10201033  RH  091%=      5-min Rain = 0
KTAS 151320Z 27003KT M02/M03 A3038 RMK A01 T10201033  RH  091%=      5-min Rain = 0
KTAS 151321Z 27003KT M02/M03 A3038 RMK A01 T10191032  RH  091%=      5-min Rain = 0
KTAS 151322Z 27004KT M02/M03 A3039 RMK A01 T10191031  RH  091%=      5-min Rain = 0
KTAS 151323Z 27004KT M02/M03 A3039 RMK A01 T10191032  RH  091%=      5-min Rain = 0
KTAS 151324Z 26004KT M02/M03 A3039 RMK A01 T10191032  RH  091%=      5-min Rain = 0
KTAS 151325Z 26004KT M02/M03 A3039 RMK A01 T10191032  RH  091%=      5-min Rain = 0
KTAS 151326Z 26004KT M02/M03 A3039 RMK A01 T10191032  RH  091%=      5-min Rain = 0
KTAS 151327Z 26004KT M02/M03 A3039 RMK A01 T10191032  RH  091%=      5-min Rain = 0
KTAS 151328Z 26004KT M02/M03 A3039 RMK A01 T10191032  RH  091%=      5-min Rain = 0
KTAS 151329Z 26005KT M02/M03 A3039 RMK A01 T10191033  RH  090%=      5-min Rain = 0
KTAS 151330Z 26005KT M02/M03 A3039 RMK A01 T10191033  RH  090%=      5-min Rain = 0
KTAS 151331Z 26004KT M02/M03 A3039 RMK A01 T10201034  RH  090%=      5-min Rain = 0
KTAS 151332Z 26004KT M02/M03 A3039 RMK A01 T10201034  RH  090%=      5-min Rain = 0
KTAS 151333Z 26004KT M02/M03 A3039 RMK A01 T10191033  RH  090%=      5-min Rain = 0
KTAS 151334Z 26004KT M02/M03 A3039 RMK A01 T10191033  RH  090%=      5-min Rain = 0
KTAS 151335Z 26004KT M02/M03 A3039 RMK A01 T10191033  RH  090%=      5-min Rain = 0
KTAS 151336Z 26004KT M02/M03 A3039 RMK A01 T10181033  RH  090%=      5-min Rain = 0
KTAS 151337Z 26004KT M02/M03 A3039 RMK A01 T10181032  RH  090%=      5-min Rain = 0
KTAS 151338Z 26005KT M02/M03 A3039 RMK A01 T10171031  RH  090%=      5-min Rain = 0
KTAS 151339Z 26005KT M02/M03 A3039 RMK A01 T10161031  RH  090%=      5-min Rain = 0
KTAS 151340Z 26004KT M02/M03 A3039 RMK A01 T10151030  RH  090%=      5-min Rain = 0
KTAS 151341Z 26004KT M01/M03 A3039 RMK A01 T10141028  RH  090%=      5-min Rain = 0
KTAS 151342Z 26004KT M01/M03 A3039 RMK A01 T10131027  RH  090%=      5-min Rain = 0
KTAS 151343Z 26004KT M01/M03 A3039 RMK A01 T10111026  RH  090%=      5-min Rain = 0
KTAS 151344Z 26004KT M01/M03 A3039 RMK A01 T10101026  RH  089%=      5-min Rain = 0
KTAS 151345Z 26005KT M01/M03 A3039 RMK A01 T10101026  RH  089%=      5-min Rain = 0
KTAS 151346Z 26004KT M01/M03 A3039 RMK A01 T10091025  RH  089%=      5-min Rain = 0
KTAS 151347Z 26005KT M01/M03 A3039 RMK A01 T10081025  RH  089%=      5-min Rain = 0
KTAS 151348Z 26005KT M01/M02 A3039 RMK A01 T10071024  RH  088%=      5-min Rain = 0
KTAS 151349Z 25004KT M01/M02 A3039 RMK A01 T10071024  RH  088%=      5-min Rain = 0
KTAS 151350Z 25004KT M01/M02 A3039 RMK A01 T10051023  RH  088%=      5-min Rain = 0
KTAS 151351Z 25004KT M00/M02 A3039 RMK A01 T10041022  RH  088%=      5-min Rain = 0
KTAS 151352Z 25004KT M00/M02 A3039 RMK A01 T10031021  RH  088%=      5-min Rain = 0
KTAS 151353Z 25004KT M00/M02 A3039 RMK A01 T10021021  RH  087%=      5-min Rain = 0
KTAS 151354Z 24003KT M00/M02 A3039 RMK A01 T10011020  RH  087%=      5-min Rain = 0
KTAS 151355Z 24003KT 00/02 A3039 RMK A01 T00-00-20  RH  087%=      5-min Rain = 0
KTAS 151356Z 24003KT 00/M02 A3039 RMK A01 T00011019  RH  087%=      5-min Rain = 0
KTAS 151357Z 24003KT 00/M02 A3039 RMK A01 T00021017  RH  087%=      5-min Rain = 0
KTAS 151358Z 24003KT 00/M02 A3039 RMK A01 T00031016  RH  087%=      5-min Rain = 0
KTAS 151359Z 24003KT 01/M02 A3039 RMK A01 T00051015  RH  087%=      5-min Rain = 0
KTAS 151400Z 24003KT 01/M01 A3039 RMK A01 T00061014  RH  087%=      5-min Rain = 0
KTAS 151401Z 24003KT 01/M01 A3039 RMK A01 T00061014  RH  087%=      5-min Rain = 0
KTAS 151402Z 24003KT 01/M01 A3039 RMK A01 T00071013  RH  087%=      5-min Rain = 0
KTAS 151403Z 24003KT 01/M01 A3039 RMK A01 T00081012  RH  087%=      5-min Rain = 0
KTAS 151404Z 24003KT 01/M01 A3039 RMK A01 T00081011  RH  087%=      5-min Rain = 0
KTAS 151405Z 24004KT 01/M01 A3039 RMK A01 T00091011  RH  087%=      5-min Rain = 0
KTAS 151406Z 24004KT 01/M01 A3039 RMK A01 T00101010  RH  086%=      5-min Rain = 0
KTAS 151407Z 23003KT 01/M01 A3039 RMK A01 T00111009  RH  086%=      5-min Rain = 0
KTAS 151408Z 22003KT 01/M01 A3039 RMK A01 T00121008  RH  086%=      5-min Rain = 0
KTAS 151409Z 22003KT 01/M01 A3039 RMK A01 T00131007  RH  087%=      5-min Rain = 0
KTAS 151410Z 22003KT 01/M01 A3039 RMK A01 T00141006  RH  087%=      5-min Rain = 0
KTAS 151411Z 22003KT 01/M01 A3039 RMK A01 T00141005  RH  087%=      5-min Rain = 0
KTAS 151412Z 22004KT 02/M00 A3039 RMK A01 T00151004  RH  087%=      5-min Rain = 0
KTAS 151413Z 22004KT 02/M00 A3039 RMK A01 T00161004  RH  087%=      5-min Rain = 0
KTAS 151414Z 22003KT 02/M00 A3039 RMK A01 T00161004  RH  087%=      5-min Rain = 0
KTAS 151415Z 21003KT 02/M00 A3039 RMK A01 T00171003  RH  087%=      5-min Rain = 0
KTAS 151416Z 22003KT 02/M00 A3039 RMK A01 T00181003  RH  086%=      5-min Rain = 0
KTAS 151417Z 22003KT 02/M00 A3039 RMK A01 T00191003  RH  086%=      5-min Rain = 0
KTAS 151418Z 22003KT 02/M00 A3039 RMK A01 T00201002  RH  086%=      5-min Rain = 0
KTAS 151419Z 22003KT 02/M00 A3039 RMK A01 T00201001  RH  086%=      5-min Rain = 0
KTAS 151420Z 22004KT 02/00 A3039 RMK A01 T00220000  RH  086%=      5-min Rain = 0
KTAS 151421Z 22003KT 02/00 A3039 RMK A01 T00220000  RH  085%=      5-min Rain = 0
KTAS 151422Z 22003KT 02/00 A3039 RMK A01 T002300-0  RH  084%=      5-min Rain = 0
KTAS 151423Z 22003KT 02/00 A3039 RMK A01 T002400-0  RH  084%=      5-min Rain = 0
KTAS 151424Z 22004KT 03/00 A3039 RMK A01 T00260001  RH  084%=      5-min Rain = 0
KTAS 151425Z 23003KT 03/00 A3039 RMK A01 T00260001  RH  083%=      5-min Rain = 0
KTAS 151426Z 23003KT 03/00 A3039 RMK A01 T00280003  RH  084%=      5-min Rain = 0
KTAS 151427Z 23004KT 03/00 A3039 RMK A01 T00290004  RH  084%=      5-min Rain = 0
KTAS 151428Z 23004KT 03/00 A3039 RMK A01 T00300003  RH  083%=      5-min Rain = 0
KTAS 151429Z 23004KT 03/00 A3039 RMK A01 T00300003  RH  082%=      5-min Rain = 0
KTAS 151430Z 22003KT 03/00 A3039 RMK A01 T00310003  RH  082%=      5-min Rain = 0
KTAS 151431Z 22003KT 03/00 A3039 RMK A01 T00320002  RH  081%=      5-min Rain = 0
KTAS 151432Z 23004KT 03/00 A3039 RMK A01 T00330002  RH  080%=      5-min Rain = 0
KTAS 151433Z 23004KT 03/00 A3039 RMK A01 T00330002  RH  080%=      5-min Rain = 0
KTAS 151434Z 23004KT 04/00 A3039 RMK A01 T00350004  RH  081%=      5-min Rain = 0
KTAS 151435Z 23004KT 04/00 A3039 RMK A01 T00350004  RH  080%=      5-min Rain = 0
KTAS 151436Z 23004KT 04/01 A3039 RMK A01 T00360005  RH  080%=      5-min Rain = 0
KTAS 151437Z 24004KT 04/00 A3039 RMK A01 T00360004  RH  080%=      5-min Rain = 0
KTAS 151438Z 23005KT 04/00 A304 RMK A01 T00370004  RH  079%=      5-min Rain = 0
KTAS 151439Z 23004KT 04/00 A304 RMK A01 T00370004  RH  079%=      5-min Rain = 0
KTAS 151440Z 24004KT 04/01 A304 RMK A01 T00390006  RH  079%=      5-min Rain = 0
KTAS 151441Z 24005KT 04/01 A304 RMK A01 T00400007  RH  079%=      5-min Rain = 0
KTAS 151442Z 23004KT 04/00 A304 RMK A01 T00400004  RH  078%=      5-min Rain = 0
KTAS 151443Z 23005KT 04/01 A304 RMK A01 T00410007  RH  078%=      5-min Rain = 0
KTAS 151444Z 23005KT 04/00 A304 RMK A01 T00410003  RH  077%=      5-min Rain = 0
KTAS 151445Z 23005KT 04/00 A3039 RMK A01 T00410003  RH  076%=      5-min Rain = 0
KTAS 151446Z 23004KT 04/01 A304 RMK A01 T00420005  RH  077%=      5-min Rain = 0
KTAS 151447Z 22004KT 04/01 A3039 RMK A01 T00430007  RH  077%=      5-min Rain = 0
KTAS 151448Z 22004KT 04/01 A3039 RMK A01 T00440008  RH  078%=      5-min Rain = 0
KTAS 151449Z 22004KT 04/01 A3039 RMK A01 T00440006  RH  076%=      5-min Rain = 0
KTAS 151450Z 22004KT 04/01 A3039 RMK A01 T00440005  RH  076%=      5-min Rain = 0
KTAS 151451Z 22005KT 05/01 A3039 RMK A01 T00460007  RH  076%=      5-min Rain = 0
KTAS 151452Z 21004KT 05/01 A3039 RMK A01 T00470008  RH  076%=      5-min Rain = 0
KTAS 151453Z 22004KT 05/01 A3039 RMK A01 T00480008  RH  075%=      5-min Rain = 0
KTAS 151454Z 22004KT 05/01 A3039 RMK A01 T00490007  RH  075%=      5-min Rain = 0
KTAS 151455Z 23005KT 05/01 A3039 RMK A01 T00490007  RH  074%=      5-min Rain = 0
KTAS 151456Z 22006KT 05/01 A3039 RMK A01 T00510009  RH  074%=      5-min Rain = 0
KTAS 151457Z 22006KT 05/01 A3039 RMK A01 T00510007  RH  073%=      5-min Rain = 0
KTAS 151458Z 22005KT 05/01 A3039 RMK A01 T00520009  RH  073%=      5-min Rain = 0
KTAS 151459Z 23006KT 05/01 A3039 RMK A01 T00530008  RH  073%=      5-min Rain = 0
KTAS 151500Z 22005KT 05/01 A3039 RMK A01 T00540008  RH  072%=      5-min Rain = 0
KTAS 151501Z 22005KT 06/01 A304 RMK A01 T00560010  RH  072%=      5-min Rain = 0
KTAS 151502Z 22004KT 06/01 A304 RMK A01 T00580012  RH  072%=      5-min Rain = 0
KTAS 151503Z 22005KT 06/01 A304 RMK A01 T00600013  RH  072%=      5-min Rain = 0
KTAS 151504Z 22005KT 06/01 A304 RMK A01 T00600011  RH  071%=      5-min Rain = 0
KTAS 151505Z 22006KT 06/01 A3039 RMK A01 T00610011  RH  070%=      5-min Rain = 0
KTAS 151506Z 22005KT 06/01 A3039 RMK A01 T00590007  RH  069%=      5-min Rain = 0
KTAS 151507Z 21006KT 06/01 A3039 RMK A01 T00590008  RH  070%=      5-min Rain = 0
KTAS 151508Z 21006KT 06/01 A3039 RMK A01 T00600008  RH  069%=      5-min Rain = 0
KTAS 151509Z 22006KT 06/01 A3039 RMK A01 T00610008  RH  069%=      5-min Rain = 0
KTAS 151510Z 22006KT 06/01 A3039 RMK A01 T00610008  RH  069%=      5-min Rain = 0
KTAS 151511Z 21005KT 06/01 A3039 RMK A01 T00610010  RH  069%=      5-min Rain = 0
KTAS 151512Z 21005KT 06/01 A3039 RMK A01 T00630009  RH  069%=      5-min Rain = 0
KTAS 151513Z 21006KT 06/01 A3039 RMK A01 T00630009  RH  068%=      5-min Rain = 0
KTAS 151514Z 21007KT 06/01 A3039 RMK A01 T00630008  RH  068%=      5-min Rain = 0
KTAS 151515Z 21006KT 06/01 A3039 RMK A01 T00630008  RH  068%=      5-min Rain = 0
KTAS 151516Z 21006KT 06/01 A3039 RMK A01 T00620007  RH  068%=      5-min Rain = 0
KTAS 151517Z 22006KT 06/01 A3039 RMK A01 T00630009  RH  068%=      5-min Rain = 0
KTAS 151518Z 22005KT 07/01 A3039 RMK A01 T00650011  RH  069%=      5-min Rain = 0
KTAS 151519Z 23006KT 07/01 A3039 RMK A01 T00660011  RH  068%=      5-min Rain = 0
KTAS 151520Z 23005KT 07/01 A3039 RMK A01 T00650009  RH  067%=      5-min Rain = 0
KTAS 151521Z 23006KT 07/01 A3039 RMK A01 T00660010  RH  068%=      5-min Rain = 0
KTAS 151522Z 23006KT 07/01 A3039 RMK A01 T00660010  RH  067%=      5-min Rain = 0
KTAS 151523Z 22006KT 07/01 A3039 RMK A01 T00670010  RH  067%=      5-min Rain = 0
KTAS 151524Z 22006KT 07/01 A3039 RMK A01 T00680012  RH  067%=      5-min Rain = 0
KTAS 151525Z 22007KT 07/01 A3039 RMK A01 T00700013  RH  067%=      5-min Rain = 0
KTAS 151526Z 22007KT 07/01 A3039 RMK A01 T00700009  RH  065%=      5-min Rain = 0
KTAS 151527Z 22005KT 07/01 A3039 RMK A01 T00700009  RH  065%=      5-min Rain = 0
KTAS 151528Z 22006KT 07/01 A3039 RMK A01 T00710011  RH  065%=      5-min Rain = 0
KTAS 151529Z 21007KT 07/01 A3039 RMK A01 T00720010  RH  065%=      5-min Rain = 0
KTAS 151530Z 21008KT 07/01 A3039 RMK A01 T00730010  RH  064%=      5-min Rain = 0
KTAS 151531Z 21007KT 08/01 A3039 RMK A01 T00750010  RH  064%=      5-min Rain = 0
KTAS 151532Z 23007KT 08/01 A3039 RMK A01 T00760011  RH  063%=      5-min Rain = 0
KTAS 151533Z 21006KT 08/01 A3039 RMK A01 T00760011  RH  064%=      5-min Rain = 0
KTAS 151534Z 22006KT 08/01 A3039 RMK A01 T00770014  RH  064%=      5-min Rain = 0
KTAS 151535Z 21005KT 08/01 A3039 RMK A01 T00760012  RH  064%=      5-min Rain = 0
KTAS 151536Z 21007KT 08/01 A3039 RMK A01 T00770014  RH  064%=      5-min Rain = 0
KTAS 151537Z 20006KT 08/01 A3039 RMK A01 T00780014  RH  064%=      5-min Rain = 0
KTAS 151538Z 20006KT 08/01 A3039 RMK A01 T00790013  RH  063%=      5-min Rain = 0
KTAS 151539Z 20006KT 08/01 A3039 RMK A01 T00790013  RH  063%=      5-min Rain = 0
KTAS 151540Z 21007KT 08/01 A3039 RMK A01 T00790013  RH  063%=      5-min Rain = 0
KTAS 151541Z 21007KT 08/01 A3039 RMK A01 T00790012  RH  063%=      5-min Rain = 0
KTAS 151542Z 21007KT 08/01 A3039 RMK A01 T00790010  RH  062%=      5-min Rain = 0
KTAS 151543Z 21007KT 08/01 A3039 RMK A01 T00790012  RH  062%=      5-min Rain = 0
KTAS 151544Z 21006KT 08/01 A3039 RMK A01 T00800013  RH  063%=      5-min Rain = 0
KTAS 151545Z 19005KT 08/02 A3039 RMK A01 T00830015  RH  062%=      5-min Rain = 0
KTAS 151546Z 19005KT 08/02 A3039 RMK A01 T00840015  RH  062%=      5-min Rain = 0
KTAS 151547Z 20005KT 09/02 A3039 RMK A01 T00860016  RH  061%=      5-min Rain = 0
KTAS 151548Z 20007KT 09/02 A3039 RMK A01 T00870015  RH  061%=      5-min Rain = 0
KTAS 151549Z 20007KT 09/01 A3039 RMK A01 T00880014  RH  060%=      5-min Rain = 0
KTAS 151550Z 21005KT 09/01 A3039 RMK A01 T00870012  RH  060%=      5-min Rain = 0
KTAS 151551Z 20006KT 09/02 A3039 RMK A01 T00890017  RH  060%=      5-min Rain = 0
KTAS 151552Z 20008KT 09/01 A3039 RMK A01 T00900014  RH  059%=      5-min Rain = 0
KTAS 151553Z 20009KT 09/01 A3039 RMK A01 T00890010  RH  058%=      5-min Rain = 0
KTAS 151554Z 19008KT 09/01 A3039 RMK A01 T00880010  RH  058%=      5-min Rain = 0
KTAS 151555Z 19007KT 09/01 A3039 RMK A01 T00900012  RH  058%=      5-min Rain = 0
KTAS 151556Z 20008KT 09/01 A3039 RMK A01 T00910013  RH  058%=      5-min Rain = 0
KTAS 151557Z 21008KT 09/01 A3039 RMK A01 T00910010  RH  057%=      5-min Rain = 0
KTAS 151558Z 20007KT 09/01 A3039 RMK A01 T00910010  RH  057%=      5-min Rain = 0
KTAS 151559Z 20007KT 09/01 A304 RMK A01 T00930011  RH  057%=      5-min Rain = 0
KTAS 151600Z 19009KT 09/01 A304 RMK A01 T00930010  RH  056%=      5-min Rain = 0
KTAS 151601Z 20009KT 09/01 A304 RMK A01 T00920008  RH  056%=      5-min Rain = 0
KTAS 151602Z 21009KT 09/01 A304 RMK A01 T00920009  RH  056%=      5-min Rain = 0
KTAS 151603Z 21008KT 09/01 A304 RMK A01 T00910007  RH  056%=      5-min Rain = 0
KTAS 151604Z 20009KT 09/01 A3039 RMK A01 T00900006  RH  056%=      5-min Rain = 0
KTAS 151605Z 20009KT 09/01 A3039 RMK A01 T00900006  RH  056%=      5-min Rain = 0
KTAS 151606Z 21009KT 09/01 A3039 RMK A01 T00910008  RH  056%=      5-min Rain = 0
KTAS 151607Z 21008KT 09/01 A3039 RMK A01 T00920009  RH  056%=      5-min Rain = 0
KTAS 151608Z 21006KT 09/01 A3039 RMK A01 T00920008  RH  056%=      5-min Rain = 0
KTAS 151609Z 21009KT 10/01 A3039 RMK A01 T00950011  RH  056%=      5-min Rain = 0
KTAS 151610Z 21008KT 10/01 A3039 RMK A01 T00950008  RH  055%=      5-min Rain = 0
KTAS 151611Z 21008KT 10/01 A3039 RMK A01 T00950008  RH  055%=      5-min Rain = 0
KTAS 151612Z 20008KT 10/01 A3039 RMK A01 T00950009  RH  055%=      5-min Rain = 0
KTAS 151613Z 20007KT 10/01 A3039 RMK A01 T00970010  RH  055%=      5-min Rain = 0
KTAS 151614Z 22008KT 10/01 A3039 RMK A01 T00950008  RH  054%=      5-min Rain = 0
KTAS 151615Z 22006KT 10/01 A3039 RMK A01 T00950010  RH  055%=      5-min Rain = 0
KTAS 151616Z 20007KT 10/01 A3039 RMK A01 T00970012  RH  055%=      5-min Rain = 0
KTAS 151617Z 20005KT 10/01 A3039 RMK A01 T00990012  RH  055%=      5-min Rain = 0
KTAS 151618Z 19007KT 10/01 A3039 RMK A01 T01030014  RH  054%=      5-min Rain = 0
KTAS 151619Z 20007KT 11/01 A3039 RMK A01 T01050013  RH  053%=      5-min Rain = 0
KTAS 151620Z 20007KT 10/01 A3039 RMK A01 T01030009  RH  052%=      5-min Rain = 0
KTAS 151621Z 20007KT 10/01 A3039 RMK A01 T01000007  RH  053%=      5-min Rain = 0
KTAS 151622Z 21007KT 10/01 A3039 RMK A01 T01000009  RH  053%=      5-min Rain = 0
KTAS 151623Z 20007KT 10/01 A3039 RMK A01 T00990009  RH  053%=      5-min Rain = 0
KTAS 151624Z 21007KT 10/01 A3039 RMK A01 T01010011  RH  053%=      5-min Rain = 0
KTAS 151625Z 19007KT 10/01 A3039 RMK A01 T01020010  RH  053%=      5-min Rain = 0
KTAS 151626Z 19007KT 10/01 A3039 RMK A01 T01030010  RH  053%=      5-min Rain = 0
KTAS 151627Z 19009KT 10/01 A3039 RMK A01 T01040010  RH  052%=      5-min Rain = 0
KTAS 151628Z 20007KT 10/01 A3039 RMK A01 T01010007  RH  052%=      5-min Rain = 0
KTAS 151629Z 20008KT 10/01 A3039 RMK A01 T01010010  RH  053%=      5-min Rain = 0
KTAS 151630Z 20008KT 10/01 A3039 RMK A01 T01010009  RH  053%=      5-min Rain = 0
KTAS 151631Z 21008KT 10/01 A3039 RMK A01 T01010009  RH  053%=      5-min Rain = 0
KTAS 151632Z 21006KT 10/01 A3039 RMK A01 T01020010  RH  053%=      5-min Rain = 0
KTAS 151633Z 20006KT 11/01 A3039 RMK A01 T01050012  RH  053%=      5-min Rain = 0
KTAS 151634Z 19007KT 11/01 A3039 RMK A01 T01070012  RH  052%=      5-min Rain = 0
KTAS 151635Z 19009KT 11/01 A3039 RMK A01 T01060009  RH  051%=      5-min Rain = 0
KTAS 151636Z 18008KT 10/01 A3039 RMK A01 T01040008  RH  051%=      5-min Rain = 0
KTAS 151637Z 18009KT 10/01 A3039 RMK A01 T01040007  RH  051%=      5-min Rain = 0
KTAS 151638Z 19008KT 10/01 A3039 RMK A01 T01040009  RH  052%=      5-min Rain = 0
KTAS 151639Z 19008KT 11/01 A3039 RMK A01 T01100014  RH  052%=      5-min Rain = 0
KTAS 151640Z 19007KT 11/01 A3039 RMK A01 T01120010  RH  050%=      5-min Rain = 0
KTAS 151641Z 19009KT 11/01 A3039 RMK A01 T01120011  RH  050%=      5-min Rain = 0
KTAS 151642Z 19009KT 11/01 A3039 RMK A01 T01120010  RH  049%=      5-min Rain = 0
KTAS 151643Z 19008KT 11/01 A3039 RMK A01 T01120010  RH  050%=      5-min Rain = 0
KTAS 151644Z 19009KT 11/01 A3039 RMK A01 T01120010  RH  049%=      5-min Rain = 0
KTAS 151645Z 20009KT 11/01 A3038 RMK A01 T01120011  RH  050%=      5-min Rain = 0
KTAS 151646Z 18009KT 11/01 A3039 RMK A01 T01120009  RH  049%=      5-min Rain = 0
KTAS 151647Z 19008KT 11/01 A3038 RMK A01 T01110008  RH  049%=      5-min Rain = 0
KTAS 151648Z 19010KT 11/01 A3038 RMK A01 T01100008  RH  049%=      5-min Rain = 0
KTAS 151649Z 18010KT 11/01 A3038 RMK A01 T01120008  RH  049%=      5-min Rain = 0
KTAS 151650Z 18009KT 11/01 A3038 RMK A01 T01090006  RH  049%=      5-min Rain = 0
KTAS 151651Z 19008KT 11/01 A3038 RMK A01 T01090009  RH  050%=      5-min Rain = 0
KTAS 151652Z 19010KT 11/01 A3038 RMK A01 T01100009  RH  050%=      5-min Rain = 0
KTAS 151653Z 19008KT 11/01 A3038 RMK A01 T01080007  RH  050%=      5-min Rain = 0
KTAS 151654Z 18010KT 11/01 A3038 RMK A01 T01090009  RH  050%=      5-min Rain = 0
KTAS 151655Z 19009KT 11/01 A3038 RMK A01 T01090008  RH  050%=      5-min Rain = 0
KTAS 151656Z 18010KT 11/01 A3038 RMK A01 T01080008  RH  050%=      5-min Rain = 0
KTAS 151657Z 18010KT 11/01 A3038 RMK A01 T01080008  RH  050%=      5-min Rain = 0
KTAS 151658Z 20009KT 11/01 A3038 RMK A01 T01090007  RH  049%=      5-min Rain = 0
KTAS 151659Z 18008KT 11/01 A3038 RMK A01 T01080008  RH  050%=      5-min Rain = 0
KTAS 151700Z 19006KT 11/01 A3038 RMK A01 T01110011  RH  050%=      5-min Rain = 0
KTAS 151701Z 18008KT 11/01 A3038 RMK A01 T01140012  RH  049%=      5-min Rain = 0
KTAS 151702Z 20009KT 12/01 A3038 RMK A01 T01150010  RH  049%=      5-min Rain = 0
KTAS 151703Z 19008KT 11/01 A3038 RMK A01 T01130009  RH  049%=      5-min Rain = 0
KTAS 151704Z 20007KT 11/01 A3038 RMK A01 T01130009  RH  049%=      5-min Rain = 0
KTAS 151705Z 20008KT 12/01 A3038 RMK A01 T01150010  RH  048%=      5-min Rain = 0
KTAS 151706Z 20010KT 12/01 A3038 RMK A01 T01160010  RH  048%=      5-min Rain = 0
KTAS 151707Z 21009KT 12/01 A3038 RMK A01 T01150010  RH  048%=      5-min Rain = 0
KTAS 151708Z 21009KT 11/01 A3038 RMK A01 T01130008  RH  048%=      5-min Rain = 0
KTAS 151709Z 22011KT 11/01 A3038 RMK A01 T01120008  RH  049%=      5-min Rain = 0
KTAS 151710Z 21008KT 11/01 A3038 RMK A01 T01120008  RH  049%=      5-min Rain = 0
KTAS 151711Z 21009KT 11/01 A3038 RMK A01 T01130010  RH  049%=      5-min Rain = 0
KTAS 151712Z 20009KT 11/01 A3038 RMK A01 T01140012  RH  049%=      5-min Rain = 0
KTAS 151713Z 20008G13KT 12/01 A3038 RMK A01 T01160012  RH  049%=      5-min Rain = 0
KTAS 151714Z 19008KT 12/01 A3038 RMK A01 T01190011  RH  048%=      5-min Rain = 0
KTAS 151715Z 18010KT 12/01 A3038 RMK A01 T01190006  RH  046%=      5-min Rain = 0
KTAS 151716Z 18012KT 12/00 A3037 RMK A01 T01170003  RH  046%=      5-min Rain = 0
KTAS 151717Z 18012KT 12/00 A3037 RMK A01 T01150004  RH  046%=      5-min Rain = 0
KTAS 151718Z 19010KT 11/01 A3037 RMK A01 T01140005  RH  047%=      5-min Rain = 0
KTAS 151719Z 20010KT 12/01 A3037 RMK A01 T01160007  RH  047%=      5-min Rain = 0
KTAS 151720Z 19006KT 12/01 A3037 RMK A01 T01160008  RH  047%=      5-min Rain = 0
KTAS 151721Z 19011KT 12/01 A3037 RMK A01 T01210011  RH  047%=      5-min Rain = 0
KTAS 151722Z 20011KT 12/01 A3037 RMK A01 T01190005  RH  045%=      5-min Rain = 0
KTAS 151723Z 21010KT 12/00 A3037 RMK A01 T01170003  RH  046%=      5-min Rain = 0
KTAS 151724Z 20010KT 12/00 A3037 RMK A01 T01160004  RH  046%=      5-min Rain = 0
KTAS 151725Z 19011KT 12/00 A3037 RMK A01 T01150003  RH  046%=      5-min Rain = 0
KTAS 151726Z 20009KT 12/00 A3037 RMK A01 T01150003  RH  046%=      5-min Rain = 0
KTAS 151727Z 19011KT 12/01 A3037 RMK A01 T01180006  RH  046%=      5-min Rain = 0
KTAS 151728Z 20010KT 12/00 A3037 RMK A01 T01190004  RH  045%=      5-min Rain = 0
KTAS 151729Z 20010KT 12/00 A3037 RMK A01 T01200003  RH  045%=      5-min Rain = 0
KTAS 151730Z 20012KT 12/00 A3037 RMK A01 T01190001  RH  044%=      5-min Rain = 0
KTAS 151731Z 20010KT 12/00 A3037 RMK A01 T01180002  RH  045%=      5-min Rain = 0
KTAS 151732Z 20012KT 12/00 A3037 RMK A01 T01170004  RH  046%=      5-min Rain = 0
KTAS 151733Z 19012KT 12/00 A3037 RMK A01 T01160001  RH  045%=      5-min Rain = 0
KTAS 151734Z 19013KT 12/00 A3037 RMK A01 T01160002  RH  045%=      5-min Rain = 0
KTAS 151735Z 19011KT 12/00 A3037 RMK A01 T01170002  RH  045%=      5-min Rain = 0
KTAS 151736Z 19012KT 12/00 A3037 RMK A01 T01180001  RH  045%=      5-min Rain = 0
KTAS 151737Z 20012KT 12/00 A3037 RMK A01 T01180000  RH  044%=      5-min Rain = 0
KTAS 151738Z 20009KT 12/00 A3037 RMK A01 T01180001  RH  044%=      5-min Rain = 0
KTAS 151739Z 20009KT 12/00 A3037 RMK A01 T01160002  RH  045%=      5-min Rain = 0
KTAS 151740Z 19009KT 12/00 A3036 RMK A01 T01180003  RH  045%=      5-min Rain = 0
KTAS 151741Z 19010KT 12/01 A3036 RMK A01 T01210005  RH  045%=      5-min Rain = 0
KTAS 151742Z 19009KT 12/00 A3036 RMK A01 T01230004  RH  044%=      5-min Rain = 0
KTAS 151743Z 19010KT 12/00 A3036 RMK A01 T01220004  RH  044%=      5-min Rain = 0
KTAS 151744Z 19011KT 12/00 A3036 RMK A01 T01210002  RH  044%=      5-min Rain = 0
KTAS 151745Z 19012KT 12/00 A3036 RMK A01 T01230003  RH  044%=      5-min Rain = 0
KTAS 151746Z 19013KT 12/00 A3036 RMK A01 T01230003  RH  044%=      5-min Rain = 0
KTAS 151747Z 20011KT 12/00 A3036 RMK A01 T01210001  RH  044%=      5-min Rain = 0
KTAS 151748Z 19010KT 12/00 A3036 RMK A01 T01210003  RH  044%=      5-min Rain = 0
KTAS 151749Z 18010KT 12/00 A3036 RMK A01 T01210002  RH  044%=      5-min Rain = 0
KTAS 151750Z 21011KT 12/00 A3036 RMK A01 T01210002  RH  044%=      5-min Rain = 0
KTAS 151751Z 21010KT 12/00 A3036 RMK A01 T01210004  RH  045%=      5-min Rain = 0
KTAS 151752Z 20012KT 12/00 A3036 RMK A01 T01240004  RH  044%=      5-min Rain = 0
KTAS 151753Z 20010KT 12/M00 A3036 RMK A01 T01221001  RH  043%=      5-min Rain = 0
KTAS 151754Z 19014KT 12/M00 A3036 RMK A01 T01231002  RH  042%=      5-min Rain = 0
KTAS 151755Z 19013KT 12/M00 A3036 RMK A01 T01231001  RH  043%=      5-min Rain = 0
KTAS 151756Z 20010KT 12/00 A3036 RMK A01 T01240001  RH  043%=      5-min Rain = 0
KTAS 151757Z 20009KT 13/00 A3036 RMK A01 T01260002  RH  042%=      5-min Rain = 0
KTAS 151758Z 18010KT 13/00 A3036 RMK A01 T01270002  RH  042%=      5-min Rain = 0
KTAS 151759Z 19009G14KT 13/00 A3036 RMK A01 T012700-0  RH  041%=      5-min Rain = 0
KTAS 151800Z 19011KT 13/00 A3035 RMK A01 T01300002  RH  041%=      5-min Rain = 0
KTAS 151801Z 20011KT 13/M00 A3036 RMK A01 T01291001  RH  041%=      5-min Rain = 0
KTAS 151802Z 19012KT 13/M00 A3035 RMK A01 T01271004  RH  040%=      5-min Rain = 0
KTAS 151803Z 19011KT 13/M00 A3035 RMK A01 T01261004  RH  041%=      5-min Rain = 0
KTAS 151804Z 19012KT 12/M01 A3035 RMK A01 T01241006  RH  041%=      5-min Rain = 0
KTAS 151805Z 20011KT 12/M00 A3035 RMK A01 T01231004  RH  042%=      5-min Rain = 0
KTAS 151806Z 19012KT 12/M00 A3035 RMK A01 T01241001  RH  042%=      5-min Rain = 0
KTAS 151807Z 19011KT 12/M00 A3035 RMK A01 T01241003  RH  042%=      5-min Rain = 0
KTAS 151808Z 20010KT 13/M00 A3035 RMK A01 T01271001  RH  042%=      5-min Rain = 0
KTAS 151809Z 18013KT 13/M01 A3035 RMK A01 T01271005  RH  040%=      5-min Rain = 0
KTAS 151810Z 19013KT 13/M01 A3035 RMK A01 T01251007  RH  040%=      5-min Rain = 0
KTAS 151811Z 18012KT 12/M01 A3035 RMK A01 T01241007  RH  040%=      5-min Rain = 0
KTAS 151812Z 19011KT 13/M01 A3035 RMK A01 T01251007  RH  040%=      5-min Rain = 0
KTAS 151813Z 19014KT 13/M01 A3035 RMK A01 T01261007  RH  040%=      5-min Rain = 0
KTAS 151814Z 19012KT 13/M01 A3035 RMK A01 T01261007  RH  040%=      5-min Rain = 0
KTAS 151815Z 19012KT 12/M01 A3035 RMK A01 T01241006  RH  041%=      5-min Rain = 0
KTAS 151816Z 21010KT 12/M01 A3035 RMK A01 T01241005  RH  041%=      5-min Rain = 0
KTAS 151817Z 22011KT 13/M01 A3034 RMK A01 T01261005  RH  040%=      5-min Rain = 0
KTAS 151818Z 20012KT 12/M01 A3034 RMK A01 T01241005  RH  041%=      5-min Rain = 0
KTAS 151819Z 19010KT 13/M00 A3034 RMK A01 T01251002  RH  042%=      5-min Rain = 0
KTAS 151820Z 19010KT 13/00 A3034 RMK A01 T01300001  RH  041%=      5-min Rain = 0
KTAS 151821Z 20010KT 13/M00 A3034 RMK A01 T01301002  RH  040%=      5-min Rain = 0
KTAS 151822Z 18010KT 13/M00 A3034 RMK A01 T01291003  RH  040%=      5-min Rain = 0
KTAS 151823Z 18009KT 13/M00 A3034 RMK A01 T01271004  RH  040%=      5-min Rain = 0
KTAS 151824Z 20008KT 13/M00 A3034 RMK A01 T01261001  RH  042%=      5-min Rain = 0
KTAS 151825Z 19012KT 13/00 A3034 RMK A01 T01300003  RH  041%=      5-min Rain = 0
KTAS 151826Z 18012KT 13/M00 A3034 RMK A01 T01301002  RH  040%=      5-min Rain = 0
KTAS 151827Z 19012KT 13/M01 A3034 RMK A01 T01291005  RH  040%=      5-min Rain = 0
KTAS 151828Z 19011KT 13/M00 A3034 RMK A01 T01281004  RH  040%=      5-min Rain = 0
KTAS 151829Z 19011KT 13/M00 A3033 RMK A01 T01281004  RH  040%=      5-min Rain = 0
KTAS 151830Z 20010KT 13/M01 A3033 RMK A01 T01281005  RH  040%=      5-min Rain = 0
KTAS 151831Z 18011KT 13/M00 A3033 RMK A01 T01291003  RH  040%=      5-min Rain = 0
KTAS 151832Z 18013KT 13/M00 A3033 RMK A01 T01301003  RH  040%=      5-min Rain = 0
KTAS 151833Z 19013KT 13/M00 A3033 RMK A01 T01301002  RH  040%=      5-min Rain = 0
KTAS 151834Z 20013KT 13/M00 A3033 RMK A01 T01281004  RH  040%=      5-min Rain = 0
KTAS 151835Z 19010KT 13/M00 A3033 RMK A01 T01271002  RH  041%=      5-min Rain = 0
KTAS 151836Z 19010G15KT 13/M00 A3033 RMK A01 T01281003  RH  040%=      5-min Rain = 0
KTAS 151837Z 21009KT 13/M00 A3033 RMK A01 T01311001  RH  040%=      5-min Rain = 0
KTAS 151838Z 18013KT 13/M00 A3033 RMK A01 T01321002  RH  040%=      5-min Rain = 0
KTAS 151839Z 18012KT 13/M00 A3033 RMK A01 T01321003  RH  039%=      5-min Rain = 0
KTAS 151840Z 20008G14KT 13/M00 A3033 RMK A01 T01331002  RH  040%=      5-min Rain = 0
KTAS 151841Z 20011KT 13/M00 A3033 RMK A01 T01331002  RH  039%=      5-min Rain = 0
KTAS 151842Z 21010KT 13/M00 A3032 RMK A01 T01301004  RH  040%=      5-min Rain = 0
KTAS 151843Z 20009KT 13/M00 A3032 RMK A01 T01301002  RH  040%=      5-min Rain = 0
KTAS 151844Z 19012KT 13/M00 A3032 RMK A01 T01321001  RH  040%=      5-min Rain = 0
KTAS 151845Z 18013KT 13/M00 A3032 RMK A01 T01341003  RH  039%=      5-min Rain = 0
KTAS 151846Z 20010G15KT 13/M00 A3032 RMK A01 T01331003  RH  039%=      5-min Rain = 0
KTAS 151847Z 20009KT 13/M00 A3032 RMK A01 T01321003  RH  039%=      5-min Rain = 0
KTAS 151848Z 20010KT 13/M00 A3032 RMK A01 T01341002  RH  039%=      5-min Rain = 0
KTAS 151849Z 19010KT 14/00 A3032 RMK A01 T013700-0  RH  039%=      5-min Rain = 0
KTAS 151850Z 20011KT 14/M00 A3032 RMK A01 T01391002  RH  038%=      5-min Rain = 0
KTAS 151851Z 19012KT 14/M00 A3032 RMK A01 T01371003  RH  038%=      5-min Rain = 0
KTAS 151852Z 19012KT 14/M00 A3032 RMK A01 T01351003  RH  039%=      5-min Rain = 0
KTAS 151853Z 18012KT 13/M00 A3032 RMK A01 T01341003  RH  039%=      5-min Rain = 0
KTAS 151854Z 19011KT 13/M00 A3032 RMK A01 T01321003  RH  039%=      5-min Rain = 0
KTAS 151855Z 20013KT 13/M00 A3032 RMK A01 T01321004  RH  039%=      5-min Rain = 0
KTAS 151856Z 20011KT 13/M00 A3031 RMK A01 T01321002  RH  040%=      5-min Rain = 0
KTAS 151857Z 18012KT 14/M00 A3031 RMK A01 T01361001  RH  039%=      5-min Rain = 0
KTAS 151858Z 19010KT 14/M00 A3031 RMK A01 T01361002  RH  039%=      5-min Rain = 0
KTAS 151859Z 18009KT 14/M00 A3031 RMK A01 T01371001  RH  039%=      5-min Rain = 0
KTAS 151900Z 18011KT 14/M00 A3031 RMK A01 T01381003  RH  038%=      5-min Rain = 0
KTAS 151901Z 19009KT 14/M00 A3031 RMK A01 T01351003  RH  039%=      5-min Rain = 0
KTAS 151902Z 18012KT 14/M00 A3031 RMK A01 T01371002  RH  038%=      5-min Rain = 0
KTAS 151903Z 19012KT 14/M00 A3031 RMK A01 T01351004  RH  038%=      5-min Rain = 0
KTAS 151904Z 20012KT 13/M00 A3031 RMK A01 T01341003  RH  039%=      5-min Rain = 0
KTAS 151905Z 22009KT 13/M01 A3031 RMK A01 T01331006  RH  038%=      5-min Rain = 0
KTAS 151906Z 21006KT 13/M01 A3031 RMK A01 T01331005  RH  039%=      5-min Rain = 0
KTAS 151907Z 20009KT 14/M00 A3031 RMK A01 T01351003  RH  039%=      5-min Rain = 0
KTAS 151908Z 19011KT 14/00 A3031 RMK A01 T01400000  RH  038%=      5-min Rain = 0
KTAS 151909Z 19011KT 14/M01 A3031 RMK A01 T01391006  RH  037%=      5-min Rain = 0
KTAS 151910Z 20010KT 14/M01 A3031 RMK A01 T01351005  RH  038%=      5-min Rain = 0
KTAS 151911Z 21012KT 14/M00 A3031 RMK A01 T01371002  RH  039%=      5-min Rain = 0
KTAS 151912Z 19011KT 14/M00 A303 RMK A01 T01351003  RH  039%=      5-min Rain = 0
KTAS 151913Z 20012KT 13/M00 A303 RMK A01 T01341002  RH  039%=      5-min Rain = 0
KTAS 151914Z 20008G14KT 13/M00 A303 RMK A01 T01331002  RH  039%=      5-min Rain = 0
KTAS 151915Z 19009G14KT 14/00 A303 RMK A01 T01380001  RH  039%=      5-min Rain = 0
KTAS 151916Z 19013KT 14/M00 A303 RMK A01 T01391001  RH  038%=      5-min Rain = 0
KTAS 151917Z 19012KT 14/M00 A303 RMK A01 T01361004  RH  038%=      5-min Rain = 0
KTAS 151918Z 20008KT 14/M00 A303 RMK A01 T01361003  RH  039%=      5-min Rain = 0
KTAS 151919Z 19008KT 14/M00 A303 RMK A01 T01391001  RH  038%=      5-min Rain = 0
KTAS 151920Z 19008KT 14/M00 A303 RMK A01 T01421002  RH  037%=      5-min Rain = 0
KTAS 151921Z 18010KT 14/M00 A303 RMK A01 T01421002  RH  037%=      5-min Rain = 0
KTAS 151922Z 18010KT 14/M00 A303 RMK A01 T01411003  RH  037%=      5-min Rain = 0
KTAS 151923Z 19012KT 14/M00 A303 RMK A01 T01381003  RH  038%=      5-min Rain = 0
KTAS 151924Z 19012KT 14/M00 A303 RMK A01 T01391001  RH  038%=      5-min Rain = 0
KTAS 151925Z 20012KT 14/M00 A303 RMK A01 T01431002  RH  037%=      5-min Rain = 0
KTAS 151926Z 19009KT 14/M00 A3029 RMK A01 T01421004  RH  037%=      5-min Rain = 0
KTAS 151927Z 19010KT 14/M00 A3029 RMK A01 T01431002  RH  037%=      5-min Rain = 0
KTAS 151928Z 19011KT 14/M00 A3029 RMK A01 T01431001  RH  037%=      5-min Rain = 0
KTAS 151929Z 20011KT 14/00 A3029 RMK A01 T014400-0  RH  037%=      5-min Rain = 0
KTAS 151930Z 19011KT 14/M00 A3029 RMK A01 T01431002  RH  037%=      5-min Rain = 0
KTAS 151931Z 20011KT 14/M00 A3029 RMK A01 T01411001  RH  038%=      5-min Rain = 0
KTAS 151932Z 19009KT 14/00 A3029 RMK A01 T014100-0  RH  038%=      5-min Rain = 0
KTAS 151933Z 18010KT 14/M00 A3029 RMK A01 T01431001  RH  037%=      5-min Rain = 0
KTAS 151934Z 18010KT 14/M00 A3029 RMK A01 T01411003  RH  037%=      5-min Rain = 0
KTAS 151935Z 20009KT 14/M00 A3029 RMK A01 T01421002  RH  037%=      5-min Rain = 0
KTAS 151936Z 19012KT 14/M00 A3029 RMK A01 T01441002  RH  037%=      5-min Rain = 0
KTAS 151937Z 19012KT 14/M00 A3029 RMK A01 T01441002  RH  037%=      5-min Rain = 0
KTAS 151938Z 18012KT 14/M00 A3029 RMK A01 T01431002  RH  037%=      5-min Rain = 0
KTAS 151939Z 18011KT 14/M00 A3029 RMK A01 T01431002  RH  037%=      5-min Rain = 0
KTAS 151940Z 19009KT 15/M00 A3029 RMK A01 T01451001  RH  037%=      5-min Rain = 0
KTAS 151941Z 19009KT 15/00 A3029 RMK A01 T01480000  RH  036%=      5-min Rain = 0
KTAS 151942Z 20009KT 15/M00 A3029 RMK A01 T01461003  RH  036%=      5-min Rain = 0
KTAS 151943Z 19013KT 15/M00 A3029 RMK A01 T01451002  RH  037%=      5-min Rain = 0
KTAS 151944Z 19011KT 15/M00 A3029 RMK A01 T01461002  RH  036%=      5-min Rain = 0
KTAS 151945Z 19010KT 15/M00 A3029 RMK A01 T01451004  RH  036%=      5-min Rain = 0
KTAS 151946Z 18010KT 14/M00 A3029 RMK A01 T01441002  RH  037%=      5-min Rain = 0
KTAS 151947Z 18011KT 14/M00 A3028 RMK A01 T01441002  RH  037%=      5-min Rain = 0
KTAS 151948Z 18013KT 15/M00 A3028 RMK A01 T01451001  RH  037%=      5-min Rain = 0
KTAS 151949Z 20010KT 15/M00 A3028 RMK A01 T01461001  RH  036%=      5-min Rain = 0
KTAS 151950Z 18010KT 15/M00 A3028 RMK A01 T01471001  RH  036%=      5-min Rain = 0
KTAS 151951Z 18010KT 15/M00 A3028 RMK A01 T01481004  RH  035%=      5-min Rain = 0
KTAS 151952Z 18010KT 15/M01 A3028 RMK A01 T01451005  RH  036%=      5-min Rain = 0
KTAS 151953Z 20013KT 15/M00 A3028 RMK A01 T01451003  RH  036%=      5-min Rain = 0
KTAS 151954Z 20010KT 14/M00 A3028 RMK A01 T01441003  RH  036%=      5-min Rain = 0
KTAS 151955Z 21008KT 14/M00 A3028 RMK A01 T01441003  RH  037%=      5-min Rain = 0
KTAS 151956Z 20007KT 14/M00 A3028 RMK A01 T01421003  RH  037%=      5-min Rain = 0
KTAS 151957Z 19008KT 15/00 A3028 RMK A01 T014500-0  RH  037%=      5-min Rain = 0
KTAS 151958Z 20009G14KT 15/M00 A3028 RMK A01 T01471001  RH  036%=      5-min Rain = 0
KTAS 151959Z 21008KT 15/M00 A3028 RMK A01 T01471001  RH  036%=      5-min Rain = 0
KTAS 152000Z 19008KT 15/00 A3028 RMK A01 T01510001  RH  036%=      5-min Rain = 0
KTAS 152001Z 18008KT 15/00 A3028 RMK A01 T01530001  RH  035%=      5-min Rain = 0
KTAS 152002Z 19009KT 15/M00 A3028 RMK A01 T01531001  RH  035%=      5-min Rain = 0
KTAS 152003Z 19009KT 15/M00 A3028 RMK A01 T01521002  RH  035%=      5-min Rain = 0
KTAS 152004Z 18010KT 15/M00 A3028 RMK A01 T01521002  RH  035%=      5-min Rain = 0
KTAS 152005Z 20012KT 15/M00 A3028 RMK A01 T01531001  RH  035%=      5-min Rain = 0
KTAS 152006Z 19010KT 15/M00 A3028 RMK A01 T01521003  RH  035%=      5-min Rain = 0
KTAS 152007Z 18008KT 15/M00 A3028 RMK A01 T01531001  RH  035%=      5-min Rain = 0
KTAS 152008Z 18010KT 15/M00 A3028 RMK A01 T01541002  RH  034%=      5-min Rain = 0
KTAS 152009Z 18013KT 15/M00 A3028 RMK A01 T01541002  RH  034%=      5-min Rain = 0
KTAS 152010Z 19012KT 15/M00 A3028 RMK A01 T01531003  RH  035%=      5-min Rain = 0
KTAS 152011Z 19012KT 15/M00 A3028 RMK A01 T01491004  RH  035%=      5-min Rain = 0
KTAS 152012Z 19011KT 15/M00 A3028 RMK A01 T01481003  RH  035%=      5-min Rain = 0
KTAS 152013Z 19009KT 15/M00 A3027 RMK A01 T01471003  RH  036%=      5-min Rain = 0
KTAS 152014Z 18011KT 15/M00 A3027 RMK A01 T01481002  RH  036%=      5-min Rain = 0
KTAS 152015Z 19013KT 15/M00 A3027 RMK A01 T01501002  RH  035%=      5-min Rain = 0
KTAS 152016Z 20013KT 15/M01 A3027 RMK A01 T01491005  RH  035%=      5-min Rain = 0
KTAS 152017Z 19011KT 15/M00 A3027 RMK A01 T01471004  RH  036%=      5-min Rain = 0
KTAS 152018Z 20008KT 15/M00 A3027 RMK A01 T01471002  RH  036%=      5-min Rain = 0
KTAS 152019Z 20009KT 15/M00 A3027 RMK A01 T01491002  RH  036%=      5-min Rain = 0
KTAS 152020Z 19008KT 15/M00 A3027 RMK A01 T01491003  RH  036%=      5-min Rain = 0
KTAS 152021Z 19010KT 15/M00 A3027 RMK A01 T01511002  RH  035%=      5-min Rain = 0
KTAS 152022Z 21010KT 15/M00 A3027 RMK A01 T01531002  RH  035%=      5-min Rain = 0
KTAS 152023Z 20010KT 15/M01 A3027 RMK A01 T01501006  RH  034%=      5-min Rain = 0
KTAS 152024Z 21010KT 15/M00 A3027 RMK A01 T01501004  RH  035%=      5-min Rain = 0
KTAS 152025Z 20009KT 15/M00 A3027 RMK A01 T01531003  RH  034%=      5-min Rain = 0
KTAS 152026Z 20013KT 16/M01 A3027 RMK A01 T01551005  RH  034%=      5-min Rain = 0
KTAS 152027Z 20010KT 15/M01 A3027 RMK A01 T01511007  RH  034%=      5-min Rain = 0
KTAS 152028Z 19011KT 15/M01 A3027 RMK A01 T01501005  RH  034%=      5-min Rain = 0
KTAS 152029Z 19012KT 15/M01 A3027 RMK A01 T01511006  RH  034%=      5-min Rain = 0
KTAS 152030Z 19011KT 15/M01 A3027 RMK A01 T01511006  RH  034%=      5-min Rain = 0
KTAS 152031Z 20012KT 15/M01 A3027 RMK A01 T01511005  RH  034%=      5-min Rain = 0
KTAS 152032Z 20009KT 15/M01 A3027 RMK A01 T01501007  RH  034%=      5-min Rain = 0
KTAS 152033Z 20012KT 15/M01 A3026 RMK A01 T01521005  RH  034%=      5-min Rain = 0
KTAS 152034Z 20011KT 15/M01 A3026 RMK A01 T01521005  RH  034%=      5-min Rain = 0
KTAS 152035Z 21011KT 15/M01 A3026 RMK A01 T01511006  RH  034%=      5-min Rain = 0
KTAS 152036Z 19010KT 15/M01 A3026 RMK A01 T01491007  RH  034%=      5-min Rain = 0
KTAS 152037Z 18010KT 15/M01 A3026 RMK A01 T01501006  RH  034%=      5-min Rain = 0
KTAS 152038Z 19011KT 16/M01 A3026 RMK A01 T01561005  RH  033%=      5-min Rain = 0
KTAS 152039Z 20011KT 16/M01 A3026 RMK A01 T01561010  RH  032%=      5-min Rain = 0
KTAS 152040Z 19012KT 15/M01 A3026 RMK A01 T01541011  RH  032%=      5-min Rain = 0
KTAS 152041Z 20012KT 15/M01 A3026 RMK A01 T01531011  RH  032%=      5-min Rain = 0
KTAS 152042Z 20014KT 15/M01 A3026 RMK A01 T01511010  RH  033%=      5-min Rain = 0
KTAS 152043Z 19012KT 15/M01 A3026 RMK A01 T01511008  RH  034%=      5-min Rain = 0
KTAS 152044Z 20011KT 15/M01 A3026 RMK A01 T01511009  RH  033%=      5-min Rain = 0
KTAS 152045Z 20011KT 15/M01 A3026 RMK A01 T01521009  RH  033%=      5-min Rain = 0
KTAS 152046Z 20008KT 15/M01 A3026 RMK A01 T01521012  RH  033%=      5-min Rain = 0
KTAS 152047Z 19009KT 15/M01 A3026 RMK A01 T01541009  RH  033%=      5-min Rain = 0
KTAS 152048Z 19013KT 16/M01 A3026 RMK A01 T01551008  RH  033%=      5-min Rain = 0
KTAS 152049Z 19009KT 15/M01 A3026 RMK A01 T01541009  RH  033%=      5-min Rain = 0
KTAS 152050Z 19008KT 16/M01 A3026 RMK A01 T01551008  RH  033%=      5-min Rain = 0
KTAS 152051Z 19007G13KT 16/M01 A3026 RMK A01 T01571006  RH  033%=      5-min Rain = 0
KTAS 152052Z 19013KT 16/M01 A3026 RMK A01 T01581006  RH  033%=      5-min Rain = 0
KTAS 152053Z 20013KT 16/M01 A3026 RMK A01 T01571010  RH  032%=      5-min Rain = 0
KTAS 152054Z 19011KT 16/M01 A3025 RMK A01 T01551012  RH  032%=      5-min Rain = 0
KTAS 152055Z 21012KT 16/M01 A3025 RMK A01 T01551011  RH  032%=      5-min Rain = 0
KTAS 152056Z 20009KT 16/M01 A3026 RMK A01 T01571011  RH  032%=      5-min Rain = 0
KTAS 152057Z 21011KT 16/M01 A3025 RMK A01 T01601010  RH  031%=      5-min Rain = 0
KTAS 152058Z 21011KT 16/M01 A3026 RMK A01 T01601013  RH  031%=      5-min Rain = 0
KTAS 152059Z 21009KT 16/M01 A3025 RMK A01 T01601013  RH  031%=      5-min Rain = 0
KTAS 152100Z 21011KT 16/M01 A3025 RMK A01 T01591013  RH  031%=      5-min Rain = 0
KTAS 152101Z 21011KT 16/M01 A3025 RMK A01 T01571011  RH  032%=      5-min Rain = 0
KTAS 152102Z 19010KT 16/M01 A3025 RMK A01 T01571008  RH  032%=      5-min Rain = 0
KTAS 152103Z 19011KT 16/M01 A3025 RMK A01 T01591006  RH  032%=      5-min Rain = 0
KTAS 152104Z 20009KT 16/M01 A3025 RMK A01 T01591007  RH  032%=      5-min Rain = 0
KTAS 152105Z 19011G17KT 16/M01 A3025 RMK A01 T01601006  RH  032%=      5-min Rain = 0
KTAS 152106Z 19013KT 16/M01 A3025 RMK A01 T01591012  RH  031%=      5-min Rain = 0
KTAS 152107Z 19011KT 16/M01 A3025 RMK A01 T01571011  RH  032%=      5-min Rain = 0
KTAS 152108Z 19010KT 16/M01 A3025 RMK A01 T01571009  RH  032%=      5-min Rain = 0
KTAS 152109Z 19011KT 16/M01 A3025 RMK A01 T01581010  RH  032%=      5-min Rain = 0
KTAS 152110Z 19010KT 16/M01 A3025 RMK A01 T01591009  RH  032%=      5-min Rain = 0
KTAS 152111Z 20013KT 16/M01 A3025 RMK A01 T01601011  RH  031%=      5-min Rain = 0
KTAS 152112Z 19012KT 16/M01 A3025 RMK A01 T01581013  RH  031%=      5-min Rain = 0
KTAS 152113Z 19012KT 16/M01 A3025 RMK A01 T01551014  RH  031%=      5-min Rain = 0
KTAS 152114Z 20010KT 15/M01 A3025 RMK A01 T01531012  RH  032%=      5-min Rain = 0
KTAS 152115Z 20010KT 15/M01 A3025 RMK A01 T01541011  RH  032%=      5-min Rain = 0
KTAS 152116Z 19011KT 16/M01 A3025 RMK A01 T01561009  RH  032%=      5-min Rain = 0
KTAS 152117Z 18011G16KT 16/M01 A3025 RMK A01 T01591010  RH  031%=      5-min Rain = 0
KTAS 152118Z 20012KT 16/M01 A3025 RMK A01 T01591012  RH  031%=      5-min Rain = 0
KTAS 152119Z 19011G16KT 16/M01 A3025 RMK A01 T01561012  RH  031%=      5-min Rain = 0
KTAS 152120Z 20011KT 16/M01 A3025 RMK A01 T01571012  RH  031%=      5-min Rain = 0
KTAS 152121Z 18014KT 16/M01 A3025 RMK A01 T01581012  RH  031%=      5-min Rain = 0
KTAS 152122Z 20012G17KT 16/M01 A3025 RMK A01 T01571013  RH  031%=      5-min Rain = 0
KTAS 152123Z 20009KT 16/M01 A3025 RMK A01 T01561012  RH  032%=      5-min Rain = 0
KTAS 152124Z 20010KT 16/M01 A3025 RMK A01 T01581009  RH  032%=      5-min Rain = 0
KTAS 152125Z 18010KT 16/M01 A3025 RMK A01 T01581009  RH  032%=      5-min Rain = 0
KTAS 152126Z 18013KT 16/M01 A3024 RMK A01 T01571010  RH  032%=      5-min Rain = 0
KTAS 152127Z 18012KT 16/M01 A3024 RMK A01 T01561011  RH  032%=      5-min Rain = 0
KTAS 152128Z 19012KT 16/M01 A3024 RMK A01 T01581010  RH  032%=      5-min Rain = 0
KTAS 152129Z 20013KT 16/M01 A3024 RMK A01 T01571011  RH  032%=      5-min Rain = 0
KTAS 152130Z 21013KT 16/M01 A3024 RMK A01 T01551014  RH  031%=      5-min Rain = 0
KTAS 152131Z 19013KT 15/M02 A3024 RMK A01 T01541016  RH  031%=      5-min Rain = 0
KTAS 152132Z 19016KT 16/M02 A3024 RMK A01 T01551016  RH  031%=      5-min Rain = 0
KTAS 152133Z 20014KT 16/M02 A3024 RMK A01 T01551016  RH  031%=      5-min Rain = 0
KTAS 152134Z 19013KT 15/M02 A3024 RMK A01 T01541016  RH  031%=      5-min Rain = 0
KTAS 152135Z 19014KT 16/M01 A3024 RMK A01 T01551014  RH  031%=      5-min Rain = 0
KTAS 152136Z 18011KT 16/M01 A3024 RMK A01 T01551013  RH  031%=      5-min Rain = 0
KTAS 152137Z 19009KT 16/M01 A3024 RMK A01 T01561012  RH  032%=      5-min Rain = 0
KTAS 152138Z 20011KT 16/M01 A3024 RMK A01 T01571012  RH  031%=      5-min Rain = 0
KTAS 152139Z 21012KT 16/M02 A3024 RMK A01 T01561016  RH  031%=      5-min Rain = 0
KTAS 152140Z 20013KT 15/M02 A3024 RMK A01 T01541017  RH  031%=      5-min Rain = 0
KTAS 152141Z 19013KT 16/M01 A3024 RMK A01 T01561012  RH  032%=      5-min Rain = 0
KTAS 152142Z 19012KT 16/M01 A3024 RMK A01 T01571012  RH  031%=      5-min Rain = 0
KTAS 152143Z 19014KT 16/M02 A3024 RMK A01 T01571015  RH  031%=      5-min Rain = 0
KTAS 152144Z 19012KT 16/M01 A3024 RMK A01 T01571013  RH  031%=      5-min Rain = 0
KTAS 152145Z 19012KT 16/M01 A3024 RMK A01 T01571012  RH  031%=      5-min Rain = 0
KTAS 152146Z 20011KT 16/M01 A3024 RMK A01 T01571013  RH  031%=      5-min Rain = 0
KTAS 152147Z 19011KT 16/M01 A3024 RMK A01 T01571011  RH  032%=      5-min Rain = 0
KTAS 152148Z 18010KT 16/M01 A3024 RMK A01 T01581009  RH  032%=      5-min Rain = 0
KTAS 152149Z 19009KT 16/M01 A3024 RMK A01 T01591009  RH  032%=      5-min Rain = 0
KTAS 152150Z 19008KT 16/M01 A3024 RMK A01 T01611009  RH  031%=      5-min Rain = 0
KTAS 152151Z 19012KT 16/M01 A3024 RMK A01 T01621010  RH  031%=      5-min Rain = 0
KTAS 152152Z 20009KT 16/M01 A3024 RMK A01 T01611013  RH  030%=      5-min Rain = 0
KTAS 152153Z 20009KT 16/M02 A3024 RMK A01 T01601015  RH  030%=      5-min Rain = 0
KTAS 152154Z 20009KT 16/M01 A3024 RMK A01 T01601014  RH  031%=      5-min Rain = 0
KTAS 152155Z 19013KT 16/M01 A3024 RMK A01 T01601011  RH  031%=      5-min Rain = 0
KTAS 152156Z 18013KT 16/M01 A3024 RMK A01 T01591010  RH  031%=      5-min Rain = 0
KTAS 152157Z 18012KT 16/M01 A3023 RMK A01 T01571013  RH  031%=      5-min Rain = 0
KTAS 152158Z 19011KT 16/M01 A3023 RMK A01 T01561011  RH  032%=      5-min Rain = 0
KTAS 152159Z 18012KT 16/M01 A3023 RMK A01 T01571010  RH  032%=      5-min Rain = 0
KTAS 152200Z 18014KT 16/M01 A3023 RMK A01 T01571010  RH  032%=      5-min Rain = 0
KTAS 152201Z 18013KT 16/M01 A3023 RMK A01 T01551012  RH  032%=      5-min Rain = 0
KTAS 152202Z 18011KT 15/M01 A3023 RMK A01 T01541011  RH  032%=      5-min Rain = 0
KTAS 152203Z 18009KT 15/M01 A3023 RMK A01 T01541011  RH  032%=      5-min Rain = 0
KTAS 152204Z 17010KT 16/M01 A3023 RMK A01 T01561009  RH  032%=      5-min Rain = 0
KTAS 152205Z 17009KT 16/M01 A3023 RMK A01 T01571009  RH  032%=      5-min Rain = 0
KTAS 152206Z 17012KT 16/M01 A3023 RMK A01 T01581010  RH  032%=      5-min Rain = 0
KTAS 152207Z 18011KT 16/M01 A3023 RMK A01 T01571011  RH  032%=      5-min Rain = 0
KTAS 152208Z 18009KT 15/M01 A3023 RMK A01 T01541012  RH  032%=      5-min Rain = 0
KTAS 152209Z 18012KT 15/M01 A3023 RMK A01 T01531011  RH  032%=      5-min Rain = 0
KTAS 152210Z 18013KT 15/M01 A3023 RMK A01 T01531011  RH  033%=      5-min Rain = 0
KTAS 152211Z 19010KT 15/M01 A3023 RMK A01 T01521010  RH  033%=      5-min Rain = 0
KTAS 152212Z 19011KT 15/M01 A3023 RMK A01 T01531010  RH  033%=      5-min Rain = 0
KTAS 152213Z 19010KT 15/M01 A3023 RMK A01 T01541010  RH  033%=      5-min Rain = 0
KTAS 152214Z 18009KT 16/M01 A3023 RMK A01 T01551009  RH  033%=      5-min Rain = 0
KTAS 152215Z 19010KT 16/M01 A3023 RMK A01 T01551010  RH  032%=      5-min Rain = 0
KTAS 152216Z 18012KT 15/M01 A3023 RMK A01 T01541011  RH  032%=      5-min Rain = 0
KTAS 152217Z 18010KT 15/M01 A3023 RMK A01 T01541010  RH  032%=      5-min Rain = 0
KTAS 152218Z 20011KT 16/M01 A3023 RMK A01 T01551011  RH  032%=      5-min Rain = 0
KTAS 152219Z 19010KT 15/M01 A3023 RMK A01 T01541013  RH  032%=      5-min Rain = 0
KTAS 152220Z 18013KT 15/M01 A3023 RMK A01 T01541014  RH  032%=      5-min Rain = 0
KTAS 152221Z 18011KT 15/M02 A3023 RMK A01 T01531016  RH  031%=      5-min Rain = 0
KTAS 152222Z 18012KT 15/M02 A3023 RMK A01 T01521016  RH  032%=      5-min Rain = 0
KTAS 152223Z 19012KT 15/M02 A3023 RMK A01 T01531015  RH  032%=      5-min Rain = 0
KTAS 152224Z 18012KT 15/M02 A3022 RMK A01 T01521016  RH  032%=      5-min Rain = 0
KTAS 152225Z 18015KT 15/M02 A3022 RMK A01 T01521015  RH  032%=      5-min Rain = 0
KTAS 152226Z 18013KT 15/M02 A3022 RMK A01 T01511016  RH  032%=      5-min Rain = 0
KTAS 152227Z 19013KT 15/M02 A3022 RMK A01 T01511016  RH  032%=      5-min Rain = 0
KTAS 152228Z 19011KT 15/M02 A3022 RMK A01 T01501015  RH  032%=      5-min Rain = 0
KTAS 152229Z 19013KT 15/M02 A3022 RMK A01 T01511015  RH  032%=      5-min Rain = 0
KTAS 152230Z 19014KT 15/M02 A3022 RMK A01 T01501015  RH  032%=      5-min Rain = 0
KTAS 152231Z 19012KT 15/M02 A3022 RMK A01 T01491016  RH  032%=      5-min Rain = 0
KTAS 152232Z 19013KT 15/M02 A3022 RMK A01 T01491015  RH  032%=      5-min Rain = 0
KTAS 152233Z 19012KT 15/M02 A3022 RMK A01 T01491015  RH  032%=      5-min Rain = 0
KTAS 152234Z 19013KT 15/M02 A3022 RMK A01 T01491015  RH  032%=      5-min Rain = 0
KTAS 152235Z 19010KT 15/M01 A3022 RMK A01 T01491014  RH  032%=      5-min Rain = 0
KTAS 152236Z 19009KT 15/M01 A3022 RMK A01 T01501014  RH  032%=      5-min Rain = 0
KTAS 152237Z 17011KT 15/M01 A3022 RMK A01 T01501012  RH  033%=      5-min Rain = 0
KTAS 152238Z 17012KT 15/M01 A3022 RMK A01 T01501013  RH  033%=      5-min Rain = 0
KTAS 152239Z 17013KT 15/M01 A3022 RMK A01 T01491013  RH  033%=      5-min Rain = 0
KTAS 152240Z 18012KT 15/M01 A3022 RMK A01 T01491012  RH  033%=      5-min Rain = 0
KTAS 152241Z 18011KT 15/M01 A3022 RMK A01 T01491010  RH  034%=      5-min Rain = 0
KTAS 152242Z 18011KT 15/M01 A3022 RMK A01 T01481011  RH  034%=      5-min Rain = 0
KTAS 152243Z 17009KT 15/M01 A3022 RMK A01 T01481011  RH  034%=      5-min Rain = 0
KTAS 152244Z 17010KT 15/M01 A3022 RMK A01 T01481008  RH  034%=      5-min Rain = 0
KTAS 152245Z 17011KT 15/M01 A3022 RMK A01 T01471008  RH  034%=      5-min Rain = 0
KTAS 152246Z 17010KT 15/M01 A3022 RMK A01 T01471008  RH  035%=      5-min Rain = 0
KTAS 152247Z 17012KT 15/M01 A3022 RMK A01 T01471007  RH  035%=      5-min Rain = 0
KTAS 152248Z 17011KT 15/M01 A3022 RMK A01 T01461007  RH  035%=      5-min Rain = 0
KTAS 152249Z 17010KT 15/M01 A3022 RMK A01 T01461007  RH  035%=      5-min Rain = 0
KTAS 152250Z 18012KT 15/M01 A3022 RMK A01 T01451008  RH  035%=      5-min Rain = 0
KTAS 152251Z 18012KT 15/M01 A3022 RMK A01 T01451007  RH  035%=      5-min Rain = 0
KTAS 152252Z 17011KT 14/M01 A3022 RMK A01 T01441007  RH  035%=      5-min Rain = 0
KTAS 152253Z 18011KT 14/M01 A3022 RMK A01 T01441007  RH  035%=      5-min Rain = 0
KTAS 152254Z 18013KT 14/M01 A3022 RMK A01 T01441008  RH  035%=      5-min Rain = 0
KTAS 152255Z 17012KT 14/M01 A3022 RMK A01 T01441008  RH  035%=      5-min Rain = 0
KTAS 152256Z 18011KT 14/M01 A3022 RMK A01 T01441007  RH  035%=      5-min Rain = 0
KTAS 152257Z 17011KT 14/M01 A3022 RMK A01 T01441007  RH  036%=      5-min Rain = 0
KTAS 152258Z 18010KT 14/M01 A3022 RMK A01 T01431007  RH  036%=      5-min Rain = 0
KTAS 152259Z 17009KT 14/M01 A3022 RMK A01 T01431006  RH  036%=      5-min Rain = 0
KTAS 152300Z 18011KT 14/M01 A3022 RMK A01 T01431005  RH  036%=      5-min Rain = 0
KTAS 152301Z 17010KT 14/M01 A3022 RMK A01 T01431005  RH  036%=      5-min Rain = 0
KTAS 152302Z 18011KT 14/M01 A3022 RMK A01 T01421006  RH  036%=      5-min Rain = 0
KTAS 152303Z 17011KT 14/M01 A3022 RMK A01 T01411006  RH  036%=      5-min Rain = 0
KTAS 152304Z 17009KT 14/M01 A3022 RMK A01 T01411005  RH  037%=      5-min Rain = 0
KTAS 152305Z 17009KT 14/M01 A3022 RMK A01 T01401006  RH  037%=      5-min Rain = 0
KTAS 152306Z 17008KT 14/M01 A3022 RMK A01 T01401005  RH  037%=      5-min Rain = 0
KTAS 152307Z 17012KT 14/M01 A3022 RMK A01 T01401005  RH  037%=      5-min Rain = 0
KTAS 152308Z 17011KT 14/M01 A3022 RMK A01 T01391006  RH  037%=      5-min Rain = 0
KTAS 152309Z 17011KT 14/M01 A3022 RMK A01 T01391006  RH  037%=      5-min Rain = 0
KTAS 152310Z 17011KT 14/M01 A3022 RMK A01 T01381005  RH  037%=      5-min Rain = 0
KTAS 152311Z 18011KT 14/M01 A3022 RMK A01 T01381005  RH  037%=      5-min Rain = 0
KTAS 152312Z 17011KT 14/M01 A3022 RMK A01 T01371006  RH  037%=      5-min Rain = 0
KTAS 152313Z 18009KT 14/M01 A3022 RMK A01 T01371006  RH  037%=      5-min Rain = 0
KTAS 152314Z 18008KT 14/M01 A3022 RMK A01 T01371005  RH  038%=      5-min Rain = 0
KTAS 152315Z 18009KT 14/M01 A3022 RMK A01 T01361005  RH  038%=      5-min Rain = 0
KTAS 152316Z 17010KT 14/M01 A3022 RMK A01 T01361005  RH  038%=      5-min Rain = 0
KTAS 152317Z 17010KT 14/M01 A3022 RMK A01 T01351006  RH  038%=      5-min Rain = 0
KTAS 152318Z 18009KT 14/M01 A3022 RMK A01 T01351006  RH  038%=      5-min Rain = 0
KTAS 152319Z 18009KT 13/M01 A3022 RMK A01 T01341005  RH  038%=      5-min Rain = 0
KTAS 152320Z 18008KT 13/M00 A3022 RMK A01 T01331004  RH  039%=      5-min Rain = 0
KTAS 152321Z 17009KT 13/M00 A3022 RMK A01 T01321004  RH  039%=      5-min Rain = 0
KTAS 152322Z 18010KT 13/M00 A3022 RMK A01 T01321004  RH  039%=      5-min Rain = 0
KTAS 152323Z 18009KT 13/M00 A3022 RMK A01 T01311004  RH  039%=      5-min Rain = 0
KTAS 152324Z 18010KT 13/M00 A3022 RMK A01 T01301004  RH  039%=      5-min Rain = 0
KTAS 152325Z 18010KT 13/M00 A3022 RMK A01 T01301004  RH  040%=      5-min Rain = 0
KTAS 152326Z 17009KT 13/M01 A3022 RMK A01 T01291005  RH  040%=      5-min Rain = 0
KTAS 152327Z 17011KT 13/M01 A3022 RMK A01 T01281005  RH  040%=      5-min Rain = 0
KTAS 152328Z 18010KT 13/M00 A3022 RMK A01 T01281004  RH  040%=      5-min Rain = 0
KTAS 152329Z 18009KT 13/M00 A3022 RMK A01 T01281004  RH  040%=      5-min Rain = 0
KTAS 152330Z 18008KT 13/M00 A3022 RMK A01 T01271004  RH  040%=      5-min Rain = 0
KTAS 152331Z 17009KT 13/M00 A3022 RMK A01 T01261004  RH  041%=      5-min Rain = 0
KTAS 152332Z 17009KT 13/M00 A3022 RMK A01 T01261004  RH  041%=      5-min Rain = 0
KTAS 152333Z 18009KT 13/M01 A3022 RMK A01 T01251005  RH  041%=      5-min Rain = 0
KTAS 152334Z 18010KT 13/M01 A3022 RMK A01 T01251005  RH  041%=      5-min Rain = 0
KTAS 152335Z 18009KT 13/M01 A3022 RMK A01 T01251005  RH  041%=      5-min Rain = 0
KTAS 152336Z 18009KT 12/M01 A3022 RMK A01 T01231005  RH  041%=      5-min Rain = 0
KTAS 152337Z 18008KT 12/M01 A3022 RMK A01 T01221005  RH  041%=      5-min Rain = 0
KTAS 152338Z 18008KT 12/M01 A3022 RMK A01 T01221005  RH  042%=      5-min Rain = 0
KTAS 152339Z 18009KT 12/M01 A3022 RMK A01 T01211005  RH  042%=      5-min Rain = 0
KTAS 152340Z 18008KT 12/M01 A3022 RMK A01 T01201005  RH  042%=      5-min Rain = 0
KTAS 152341Z 18008KT 12/M01 A3022 RMK A01 T01201005  RH  042%=      5-min Rain = 0
KTAS 152342Z 18008KT 12/M01 A3022 RMK A01 T01181005  RH  042%=      5-min Rain = 0
KTAS 152343Z 18008KT 12/M01 A3022 RMK A01 T01171005  RH  043%=      5-min Rain = 0
KTAS 152344Z 18007KT 12/M01 A3022 RMK A01 T01161005  RH  043%=      5-min Rain = 0
KTAS 152345Z 18007KT 12/M01 A3022 RMK A01 T01151005  RH  044%=      5-min Rain = 0
KTAS 152346Z 18008KT 11/M01 A3022 RMK A01 T01131005  RH  044%=      5-min Rain = 0
KTAS 152347Z 18008KT 11/M00 A3022 RMK A01 T01131004  RH  044%=      5-min Rain = 0
KTAS 152348Z 17007KT 11/M00 A3022 RMK A01 T01131004  RH  044%=      5-min Rain = 0
KTAS 152349Z 17007KT 11/M00 A3022 RMK A01 T01121004  RH  045%=      5-min Rain = 0
KTAS 152350Z 17007KT 11/M00 A3022 RMK A01 T01111004  RH  045%=      5-min Rain = 0
KTAS 152351Z 17007KT 11/M00 A3022 RMK A01 T01091004  RH  046%=      5-min Rain = 0
KTAS 152352Z 17008KT 11/M00 A3022 RMK A01 T01081004  RH  046%=      5-min Rain = 0
KTAS 152353Z 17008KT 11/M00 A3022 RMK A01 T01071004  RH  046%=      5-min Rain = 0
KTAS 152354Z 17008KT 11/M00 A3022 RMK A01 T01061004  RH  047%=      5-min Rain = 0
KTAS 152355Z 17008KT 11/M00 A3022 RMK A01 T01061003  RH  047%=      5-min Rain = 0
KTAS 152356Z 17009KT 11/M00 A3022 RMK A01 T01061003  RH  047%=      5-min Rain = 0
KTAS 152357Z 17009KT 11/M00 A3022 RMK A01 T01061002  RH  047%=      5-min Rain = 0
KTAS 152358Z 17008KT 11/M00 A3022 RMK A01 T01061002  RH  047%=      5-min Rain = 0
KTAS 152359Z 17009KT 11/M00 A3022 RMK A01 T01061002  RH  047%=      5-min Rain = 0
KTAS 160000Z 17008KT 11/M00 A3022 RMK A01 T01051001  RH  048%=      5-min Rain = 0
KTAS 160001Z 17009KT 10/M00 A3022 RMK A01 T01031001  RH  048%=      5-min Rain = 0
KTAS 160002Z 17008KT 10/M00 A3022 RMK A01 T01021002  RH  049%=      5-min Rain = 0
KTAS 160003Z 17008KT 10/M00 A3022 RMK A01 T01021001  RH  049%=      5-min Rain = 0
KTAS 160004Z 17009KT 10/M00 A3022 RMK A01 T01011001  RH  049%=      5-min Rain = 0
KTAS 160005Z 17009KT 10/M00 A3022 RMK A01 T01011001  RH  049%=      5-min Rain = 0
KTAS 160006Z 17009KT 10/M00 A3022 RMK A01 T01011001  RH  049%=      5-min Rain = 0
KTAS 160007Z 17009KT 10/M00 A3022 RMK A01 T01021001  RH  049%=      5-min Rain = 0
KTAS 160008Z 16009KT 10/M00 A3022 RMK A01 T01021001  RH  049%=      5-min Rain = 0
KTAS 160009Z 17010KT 10/M00 A3022 RMK A01 T01021001  RH  049%=      5-min Rain = 0
KTAS 160010Z 17009KT 10/00 A3022 RMK A01 T010200-0  RH  049%=      5-min Rain = 0
KTAS 160011Z 17009KT 10/00 A3022 RMK A01 T010100-0  RH  049%=      5-min Rain = 0
KTAS 160012Z 17010KT 10/00 A3022 RMK A01 T01010000  RH  050%=      5-min Rain = 0
KTAS 160013Z 17010KT 10/00 A3022 RMK A01 T010100-0  RH  050%=      5-min Rain = 0
KTAS 160014Z 17009KT 10/00 A3022 RMK A01 T010000-0  RH  050%=      5-min Rain = 0
KTAS 160015Z 17010KT 10/00 A3022 RMK A01 T010000-0  RH  050%=      5-min Rain = 0
KTAS 160016Z 17010KT 10/00 A3022 RMK A01 T01010000  RH  050%=      5-min Rain = 0
KTAS 160017Z 17010KT 10/00 A3022 RMK A01 T010000-0  RH  050%=      5-min Rain = 0
KTAS 160018Z 17010KT 10/00 A3022 RMK A01 T010100-0  RH  050%=      5-min Rain = 0
KTAS 160019Z 17009KT 10/00 A3022 RMK A01 T01000000  RH  050%=      5-min Rain = 0
KTAS 160020Z 17010KT 10/00 A3022 RMK A01 T01000000  RH  050%=      5-min Rain = 0
KTAS 160021Z 17010KT 10/00 A3022 RMK A01 T00990000  RH  050%=      5-min Rain = 0
KTAS 160022Z 17010KT 10/00 A3022 RMK A01 T00990001  RH  050%=      5-min Rain = 0
KTAS 160023Z 17011KT 10/00 A3022 RMK A01 T00990001  RH  051%=      5-min Rain = 0
KTAS 160024Z 17009KT 10/00 A3022 RMK A01 T00990001  RH  051%=      5-min Rain = 0
KTAS 160025Z 17010KT 10/00 A3022 RMK A01 T00980001  RH  051%=      5-min Rain = 0
KTAS 160026Z 17009KT 10/00 A3022 RMK A01 T00980001  RH  051%=      5-min Rain = 0
KTAS 160027Z 17009KT 10/00 A3022 RMK A01 T00970001  RH  051%=      5-min Rain = 0
KTAS 160028Z 17010KT 10/00 A3022 RMK A01 T00960001  RH  052%=      5-min Rain = 0
KTAS 160029Z 17009KT 10/00 A3022 RMK A01 T00960001  RH  052%=      5-min Rain = 0
KTAS 160030Z 17009KT 10/00 A3022 RMK A01 T00960002  RH  052%=      5-min Rain = 0
KTAS 160031Z 17009KT 10/00 A3022 RMK A01 T00960002  RH  052%=      5-min Rain = 0
KTAS 160032Z 17009KT 10/00 A3022 RMK A01 T00950002  RH  052%=      5-min Rain = 0
KTAS 160033Z 17010KT 10/00 A3022 RMK A01 T00950001  RH  052%=      5-min Rain = 0
KTAS 160034Z 17010KT 10/00 A3022 RMK A01 T00950001  RH  052%=      5-min Rain = 0
KTAS 160035Z 17009KT 10/00 A3022 RMK A01 T00950002  RH  052%=      5-min Rain = 0
KTAS 160036Z 17009KT 09/00 A3022 RMK A01 T00940002  RH  052%=      5-min Rain = 0
KTAS 160037Z 17009KT 09/00 A3022 RMK A01 T00940001  RH  052%=      5-min Rain = 0
KTAS 160038Z 17009KT 09/00 A3022 RMK A01 T00940001  RH  052%=      5-min Rain = 0
KTAS 160039Z 17010KT 09/00 A3022 RMK A01 T00940001  RH  052%=      5-min Rain = 0
KTAS 160040Z 17009KT 09/00 A3022 RMK A01 T00930001  RH  053%=      5-min Rain = 0
KTAS 160041Z 17010KT 09/00 A3022 RMK A01 T00930001  RH  053%=      5-min Rain = 0
KTAS 160042Z 17010KT 09/00 A3022 RMK A01 T00930001  RH  053%=      5-min Rain = 0
KTAS 160043Z 17010KT 09/00 A3022 RMK A01 T00930001  RH  053%=      5-min Rain = 0
KTAS 160044Z 17009KT 09/00 A3022 RMK A01 T00920002  RH  053%=      5-min Rain = 0
KTAS 160045Z 17009KT 09/00 A3022 RMK A01 T00910001  RH  054%=      5-min Rain = 0
KTAS 160046Z 17009KT 09/00 A3022 RMK A01 T00900002  RH  054%=      5-min Rain = 0
KTAS 160047Z 17009KT 09/00 A3022 RMK A01 T00900002  RH  054%=      5-min Rain = 0
KTAS 160048Z 17009KT 09/00 A3022 RMK A01 T00890002  RH  054%=      5-min Rain = 0
KTAS 160049Z 17009KT 09/00 A3022 RMK A01 T00890002  RH  055%=      5-min Rain = 0
KTAS 160050Z 17009KT 09/00 A3022 RMK A01 T00880002  RH  055%=      5-min Rain = 0
KTAS 160051Z 17009KT 09/00 A3022 RMK A01 T00880002  RH  055%=      5-min Rain = 0
KTAS 160052Z 17009KT 09/00 A3022 RMK A01 T00880002  RH  055%=      5-min Rain = 0
KTAS 160053Z 17010KT 09/00 A3022 RMK A01 T00880002  RH  055%=      5-min Rain = 0
KTAS 160054Z 17011KT 09/00 A3022 RMK A01 T00880002  RH  055%=      5-min Rain = 0
KTAS 160055Z 16011KT 09/00 A3022 RMK A01 T00890002  RH  054%=      5-min Rain = 0
KTAS 160056Z 17011KT 09/00 A3022 RMK A01 T00900002  RH  054%=      5-min Rain = 0
KTAS 160057Z 16010KT 09/00 A3022 RMK A01 T00900002  RH  054%=      5-min Rain = 0
KTAS 160058Z 17010KT 09/00 A3022 RMK A01 T00900002  RH  054%=      5-min Rain = 0
KTAS 160059Z 17010KT 09/00 A3022 RMK A01 T00890002  RH  054%=      5-min Rain = 0
KTAS 160100Z 17011KT 09/00 A3022 RMK A01 T00890001  RH  054%=      5-min Rain = 0
KTAS 160101Z 17011KT 09/00 A3022 RMK A01 T00910001  RH  053%=      5-min Rain = 0
KTAS 160102Z 17010KT 09/00 A3022 RMK A01 T00920001  RH  053%=      5-min Rain = 0
KTAS 160103Z 17011KT 09/00 A3022 RMK A01 T00910001  RH  053%=      5-min Rain = 0
KTAS 160104Z 17010KT 09/00 A3022 RMK A01 T00910000  RH  053%=      5-min Rain = 0
KTAS 160105Z 17010KT 09/00 A3022 RMK A01 T009200-0  RH  052%=      5-min Rain = 0
KTAS 160106Z 17010KT 09/00 A3022 RMK A01 T00930000  RH  052%=      5-min Rain = 0
KTAS 160107Z 17010KT 09/00 A3022 RMK A01 T009200-0  RH  053%=      5-min Rain = 0
KTAS 160108Z 17009KT 09/00 A3022 RMK A01 T009100-0  RH  053%=      5-min Rain = 0
KTAS 160109Z 17011KT 09/M00 A3022 RMK A01 T00911001  RH  053%=      5-min Rain = 0
KTAS 160110Z 17010KT 09/M00 A3022 RMK A01 T00921001  RH  052%=      5-min Rain = 0
KTAS 160111Z 17009KT 09/M00 A3022 RMK A01 T00931001  RH  052%=      5-min Rain = 0
KTAS 160112Z 17010KT 09/M00 A3022 RMK A01 T00931001  RH  052%=      5-min Rain = 0
KTAS 160113Z 17009KT 09/M00 A3022 RMK A01 T00921001  RH  052%=      5-min Rain = 0
KTAS 160114Z 17010KT 09/M00 A3022 RMK A01 T00911001  RH  053%=      5-min Rain = 0
KTAS 160115Z 17009KT 09/00 A3022 RMK A01 T009000-0  RH  053%=      5-min Rain = 0
KTAS 160116Z 17010KT 09/00 A3022 RMK A01 T008900-0  RH  053%=      5-min Rain = 0
KTAS 160117Z 17010KT 09/00 A3022 RMK A01 T008900-0  RH  054%=      5-min Rain = 0
KTAS 160118Z 17010KT 09/M00 A3022 RMK A01 T00891001  RH  053%=      5-min Rain = 0
KTAS 160119Z 17009KT 09/00 A3022 RMK A01 T008900-0  RH  054%=      5-min Rain = 0
KTAS 160120Z 17009KT 09/00 A3022 RMK A01 T008800-0  RH  054%=      5-min Rain = 0
KTAS 160121Z 17010KT 09/00 A3022 RMK A01 T008700-0  RH  054%=      5-min Rain = 0
KTAS 160122Z 17009KT 09/00 A3022 RMK A01 T008600-0  RH  055%=      5-min Rain = 0
KTAS 160123Z 17010KT 09/00 A3022 RMK A01 T008600-0  RH  055%=      5-min Rain = 0
KTAS 160124Z 17010KT 09/00 A3022 RMK A01 T008600-0  RH  055%=      5-min Rain = 0
KTAS 160125Z 17010KT 09/M00 A3022 RMK A01 T00851001  RH  055%=      5-min Rain = 0
KTAS 160126Z 17009KT 09/M00 A3022 RMK A01 T00851001  RH  055%=      5-min Rain = 0
KTAS 160127Z 17009KT 08/M00 A3022 RMK A01 T00841001  RH  055%=      5-min Rain = 0
KTAS 160128Z 17009KT 08/M00 A3022 RMK A01 T00841001  RH  055%=      5-min Rain = 0
KTAS 160129Z 17008KT 08/M00 A3022 RMK A01 T00841001  RH  055%=      5-min Rain = 0
KTAS 160130Z 17009KT 08/M00 A3022 RMK A01 T00831001  RH  056%=      5-min Rain = 0
KTAS 160131Z 17009KT 08/M00 A3022 RMK A01 T00821001  RH  056%=      5-min Rain = 0
KTAS 160132Z 17009KT 08/M00 A3022 RMK A01 T00811001  RH  056%=      5-min Rain = 0
KTAS 160133Z 17008KT 08/M00 A3022 RMK A01 T00811001  RH  056%=      5-min Rain = 0
KTAS 160134Z 17009KT 08/M00 A3022 RMK A01 T00801001  RH  057%=      5-min Rain = 0
KTAS 160135Z 17009KT 08/00 A3022 RMK A01 T008000-0  RH  057%=      5-min Rain = 0
KTAS 160136Z 17009KT 08/00 A3022 RMK A01 T007900-0  RH  057%=      5-min Rain = 0
KTAS 160137Z 17009KT 08/00 A3022 RMK A01 T007800-0  RH  058%=      5-min Rain = 0
KTAS 160138Z 17009KT 08/00 A3022 RMK A01 T007800-0  RH  058%=      5-min Rain = 0
KTAS 160139Z 17009KT 08/M00 A3022 RMK A01 T00781001  RH  057%=      5-min Rain = 0
KTAS 160140Z 17009KT 08/M00 A3022 RMK A01 T00781001  RH  057%=      5-min Rain = 0
KTAS 160141Z 17009KT 08/M00 A3022 RMK A01 T00781001  RH  057%=      5-min Rain = 0
KTAS 160142Z 17009KT 08/00 A3022 RMK A01 T007800-0  RH  057%=      5-min Rain = 0
KTAS 160143Z 17008KT 08/M00 A3022 RMK A01 T00781001  RH  057%=      5-min Rain = 0
KTAS 160144Z 17008KT 08/M00 A3022 RMK A01 T00771001  RH  058%=      5-min Rain = 0
KTAS 160145Z 17008KT 08/M00 A3022 RMK A01 T00761001  RH  058%=      5-min Rain = 0
KTAS 160146Z 17008KT 08/00 A3022 RMK A01 T007500-0  RH  059%=      5-min Rain = 0
KTAS 160147Z 17009KT 08/00 A3022 RMK A01 T007500-0  RH  059%=      5-min Rain = 0
KTAS 160148Z 17009KT 08/00 A3022 RMK A01 T007500-0  RH  059%=      5-min Rain = 0
KTAS 160149Z 17008KT 07/00 A3022 RMK A01 T007400-0  RH  059%=      5-min Rain = 0
KTAS 160150Z 18008KT 07/00 A3022 RMK A01 T007400-0  RH  059%=      5-min Rain = 0
KTAS 160151Z 18009KT 07/00 A3022 RMK A01 T007300-0  RH  060%=      5-min Rain = 0
KTAS 160152Z 17009KT 07/00 A3022 RMK A01 T00730000  RH  060%=      5-min Rain = 0
KTAS 160153Z 17009KT 07/00 A3022 RMK A01 T007200-0  RH  060%=      5-min Rain = 0
KTAS 160154Z 17009KT 07/00 A3022 RMK A01 T007100-0  RH  060%=      5-min Rain = 0
KTAS 160155Z 17009KT 07/00 A3022 RMK A01 T007100-0  RH  060%=      5-min Rain = 0
KTAS 160156Z 17009KT 07/00 A3022 RMK A01 T007100-0  RH  061%=      5-min Rain = 0
KTAS 160157Z 17009KT 07/00 A3022 RMK A01 T007100-0  RH  061%=      5-min Rain = 0
KTAS 160158Z 18009KT 07/00 A3022 RMK A01 T007000-0  RH  061%=      5-min Rain = 0
KTAS 160159Z 17009KT 07/00 A3022 RMK A01 T006900-0  RH  061%=      5-min Rain = 0
KTAS 160200Z 17009KT 07/00 A3022 RMK A01 T006900-0  RH  062%=      5-min Rain = 0
KTAS 160201Z 17009KT 07/00 A3022 RMK A01 T00690000  RH  061%=      5-min Rain = 0
KTAS 160202Z 18009KT 07/00 A3022 RMK A01 T00690000  RH  061%=      5-min Rain = 0
KTAS 160203Z 17009KT 07/00 A3022 RMK A01 T00690000  RH  062%=      5-min Rain = 0
KTAS 160204Z 18009KT 07/00 A3022 RMK A01 T00680000  RH  062%=      5-min Rain = 0
KTAS 160205Z 18009KT 07/00 A3022 RMK A01 T00680000  RH  062%=      5-min Rain = 0
KTAS 160206Z 18009KT 07/00 A3022 RMK A01 T00670000  RH  062%=      5-min Rain = 0
KTAS 160207Z 18008KT 07/00 A3022 RMK A01 T00660000  RH  063%=      5-min Rain = 0
KTAS 160208Z 18008KT 07/00 A3022 RMK A01 T00660000  RH  063%=      5-min Rain = 0
KTAS 160209Z 18009KT 07/00 A3022 RMK A01 T006500-0  RH  063%=      5-min Rain = 0
KTAS 160210Z 18009KT 06/00 A3022 RMK A01 T006400-0  RH  063%=      5-min Rain = 0
KTAS 160211Z 18009KT 06/00 A3022 RMK A01 T006400-0  RH  064%=      5-min Rain = 0
KTAS 160212Z 18009KT 06/00 A3022 RMK A01 T00640000  RH  064%=      5-min Rain = 0
KTAS 160213Z 18009KT 06/00 A3022 RMK A01 T00640000  RH  064%=      5-min Rain = 0
KTAS 160214Z 18009KT 06/00 A3022 RMK A01 T00640000  RH  064%=      5-min Rain = 0
KTAS 160215Z 18009KT 06/00 A3022 RMK A01 T00630000  RH  064%=      5-min Rain = 0
KTAS 160216Z 18009KT 06/00 A3022 RMK A01 T00630000  RH  064%=      5-min Rain = 0
KTAS 160217Z 18009KT 06/00 A3022 RMK A01 T006200-0  RH  064%=      5-min Rain = 0
KTAS 160218Z 18009KT 06/00 A3022 RMK A01 T006200-0  RH  064%=      5-min Rain = 0
KTAS 160219Z 18009KT 06/00 A3022 RMK A01 T006100-0  RH  065%=      5-min Rain = 0
KTAS 160220Z 18009KT 06/00 A3022 RMK A01 T006100-0  RH  065%=      5-min Rain = 0
KTAS 160221Z 18009KT 06/00 A3022 RMK A01 T006200-0  RH  065%=      5-min Rain = 0
KTAS 160222Z 18008KT 06/00 A3022 RMK A01 T006100-0  RH  065%=      5-min Rain = 0
KTAS 160223Z 18008KT 06/00 A3022 RMK A01 T006100-0  RH  065%=      5-min Rain = 0
KTAS 160224Z 18008KT 06/00 A3022 RMK A01 T006000-0  RH  065%=      5-min Rain = 0
KTAS 160225Z 18008KT 06/00 A3022 RMK A01 T00600000  RH  065%=      5-min Rain = 0
KTAS 160226Z 18009KT 06/00 A3022 RMK A01 T00600000  RH  066%=      5-min Rain = 0
KTAS 160227Z 18009KT 06/00 A3022 RMK A01 T00600000  RH  065%=      5-min Rain = 0
KTAS 160228Z 18009KT 06/00 A3022 RMK A01 T00610001  RH  065%=      5-min Rain = 0
KTAS 160229Z 18009KT 06/00 A3022 RMK A01 T00620001  RH  065%=      5-min Rain = 0
KTAS 160230Z 18009KT 06/00 A3022 RMK A01 T00620001  RH  065%=      5-min Rain = 0
KTAS 160231Z 18009KT 06/00 A3022 RMK A01 T00620001  RH  065%=      5-min Rain = 0
KTAS 160232Z 18009KT 06/00 A3022 RMK A01 T00620001  RH  065%=      5-min Rain = 0
KTAS 160233Z 18009KT 06/00 A3022 RMK A01 T00620000  RH  065%=      5-min Rain = 0
KTAS 160234Z 18009KT 06/00 A3022 RMK A01 T00610000  RH  065%=      5-min Rain = 0
KTAS 160235Z 18009KT 06/00 A3022 RMK A01 T00610001  RH  065%=      5-min Rain = 0
KTAS 160236Z 18008KT 06/00 A3022 RMK A01 T00610001  RH  065%=      5-min Rain = 0
KTAS 160237Z 18008KT 06/00 A3022 RMK A01 T00610001  RH  065%=      5-min Rain = 0
KTAS 160238Z 18008KT 06/00 A3022 RMK A01 T00600000  RH  066%=      5-min Rain = 0
KTAS 160239Z 18008KT 06/00 A3022 RMK A01 T00600000  RH  066%=      5-min Rain = 0
KTAS 160240Z 18008KT 06/00 A3022 RMK A01 T00590001  RH  066%=      5-min Rain = 0
KTAS 160241Z 18008KT 06/00 A3022 RMK A01 T00590001  RH  066%=      5-min Rain = 0
KTAS 160242Z 18008KT 06/00 A3022 RMK A01 T00590001  RH  066%=      5-min Rain = 0
KTAS 160243Z 18008KT 06/00 A3022 RMK A01 T00590001  RH  066%=      5-min Rain = 0
KTAS 160244Z 18009KT 06/00 A3021 RMK A01 T00590001  RH  066%=      5-min Rain = 0
KTAS 160245Z 18009KT 06/00 A3021 RMK A01 T00600002  RH  066%=      5-min Rain = 0
KTAS 160246Z 18009KT 06/00 A3021 RMK A01 T00600002  RH  066%=      5-min Rain = 0
KTAS 160247Z 18009KT 06/00 A3021 RMK A01 T00600001  RH  066%=      5-min Rain = 0
KTAS 160248Z 18008KT 06/00 A3021 RMK A01 T00600001  RH  066%=      5-min Rain = 0
KTAS 160249Z 18008KT 06/00 A3021 RMK A01 T00600001  RH  066%=      5-min Rain = 0
KTAS 160250Z 18009KT 06/00 A3021 RMK A01 T00590001  RH  066%=      5-min Rain = 0
KTAS 160251Z 18009KT 06/00 A3021 RMK A01 T00590001  RH  067%=      5-min Rain = 0
KTAS 160252Z 18009KT 06/00 A3021 RMK A01 T00590002  RH  067%=      5-min Rain = 0
KTAS 160253Z 18009KT 06/00 A3021 RMK A01 T00590002  RH  067%=      5-min Rain = 0
KTAS 160254Z 18009KT 06/00 A3021 RMK A01 T00590002  RH  067%=      5-min Rain = 0
KTAS 160255Z 18009KT 06/00 A3021 RMK A01 T00590002  RH  067%=      5-min Rain = 0
KTAS 160256Z 17009KT 06/00 A3021 RMK A01 T00590002  RH  067%=      5-min Rain = 0
KTAS 160257Z 18009KT 06/00 A3021 RMK A01 T00590002  RH  067%=      5-min Rain = 0
KTAS 160258Z 18009KT 06/00 A3021 RMK A01 T00590002  RH  067%=      5-min Rain = 0
KTAS 160259Z 18009KT 06/00 A3021 RMK A01 T00590002  RH  067%=      5-min Rain = 0
KTAS 160300Z 18009KT 06/00 A3021 RMK A01 T00590002  RH  067%=      5-min Rain = 0
KTAS 160301Z 18009KT 06/00 A3021 RMK A01 T00580001  RH  067%=      5-min Rain = 0
KTAS 160302Z 17009KT 06/00 A3021 RMK A01 T00580001  RH  067%=      5-min Rain = 0
KTAS 160303Z 18010KT 06/00 A3021 RMK A01 T00580001  RH  067%=      5-min Rain = 0
KTAS 160304Z 17009KT 06/00 A3021 RMK A01 T00570001  RH  067%=      5-min Rain = 0
KTAS 160305Z 18010KT 06/00 A3021 RMK A01 T00570001  RH  067%=      5-min Rain = 0
KTAS 160306Z 18009KT 06/00 A3021 RMK A01 T00570001  RH  067%=      5-min Rain = 0
KTAS 160307Z 18009KT 06/00 A3021 RMK A01 T00570001  RH  067%=      5-min Rain = 0
KTAS 160308Z 18009KT 06/00 A302 RMK A01 T00570001  RH  067%=      5-min Rain = 0
KTAS 160309Z 18009KT 06/00 A302 RMK A01 T00570001  RH  067%=      5-min Rain = 0
KTAS 160310Z 18009KT 06/00 A302 RMK A01 T00560001  RH  068%=      5-min Rain = 0
KTAS 160311Z 18009KT 06/00 A302 RMK A01 T00560001  RH  068%=      5-min Rain = 0
KTAS 160312Z 18009KT 06/00 A302 RMK A01 T00550001  RH  068%=      5-min Rain = 0
KTAS 160313Z 18009KT 06/00 A302 RMK A01 T00550001  RH  068%=      5-min Rain = 0
KTAS 160314Z 18009KT 06/00 A302 RMK A01 T00550001  RH  068%=      5-min Rain = 0
KTAS 160315Z 18009KT 05/00 A302 RMK A01 T00540001  RH  068%=      5-min Rain = 0
KTAS 160316Z 18008KT 05/00 A302 RMK A01 T00540000  RH  068%=      5-min Rain = 0
KTAS 160317Z 18008KT 05/00 A302 RMK A01 T00530000  RH  069%=      5-min Rain = 0
KTAS 160318Z 18008KT 05/00 A302 RMK A01 T00530000  RH  069%=      5-min Rain = 0
KTAS 160319Z 18008KT 05/00 A302 RMK A01 T005200-0  RH  069%=      5-min Rain = 0
KTAS 160320Z 18009KT 05/00 A302 RMK A01 T005200-0  RH  069%=      5-min Rain = 0
KTAS 160321Z 18009KT 05/00 A302 RMK A01 T005300-0  RH  069%=      5-min Rain = 0
KTAS 160322Z 18009KT 05/00 A302 RMK A01 T005300-0  RH  068%=      5-min Rain = 0
KTAS 160323Z 18009KT 05/M00 A302 RMK A01 T00531001  RH  068%=      5-min Rain = 0
KTAS 160324Z 18009KT 05/00 A302 RMK A01 T005400-0  RH  068%=      5-min Rain = 0
KTAS 160325Z 18009KT 05/M00 A302 RMK A01 T00541001  RH  068%=      5-min Rain = 0
KTAS 160326Z 18009KT 06/M00 A302 RMK A01 T00561001  RH  067%=      5-min Rain = 0
KTAS 160327Z 18009KT 06/M00 A302 RMK A01 T00561001  RH  067%=      5-min Rain = 0
KTAS 160328Z 18009KT 06/M00 A302 RMK A01 T00571001  RH  066%=      5-min Rain = 0
KTAS 160329Z 18010KT 06/M00 A302 RMK A01 T00581001  RH  066%=      5-min Rain = 0
KTAS 160330Z 18010KT 06/M00 A302 RMK A01 T00591001  RH  065%=      5-min Rain = 0
KTAS 160331Z 18010KT 06/M00 A302 RMK A01 T00601002  RH  064%=      5-min Rain = 0
KTAS 160332Z 18010KT 06/M00 A302 RMK A01 T00611002  RH  064%=      5-min Rain = 0
KTAS 160333Z 18010KT 06/M00 A302 RMK A01 T00611002  RH  064%=      5-min Rain = 0
KTAS 160334Z 18010KT 06/M00 A302 RMK A01 T00621002  RH  064%=      5-min Rain = 0
KTAS 160335Z 18010KT 06/M00 A302 RMK A01 T00631002  RH  063%=      5-min Rain = 0
KTAS 160336Z 18010KT 06/M00 A302 RMK A01 T00631002  RH  063%=      5-min Rain = 0
KTAS 160337Z 18009KT 06/M00 A302 RMK A01 T00631003  RH  063%=      5-min Rain = 0
KTAS 160338Z 18009KT 06/M00 A302 RMK A01 T00621003  RH  063%=      5-min Rain = 0
KTAS 160339Z 18009KT 06/M00 A302 RMK A01 T00621003  RH  063%=      5-min Rain = 0
KTAS 160340Z 18009KT 06/M00 A302 RMK A01 T00621003  RH  063%=      5-min Rain = 0
KTAS 160341Z 18009KT 06/M00 A302 RMK A01 T00621003  RH  063%=      5-min Rain = 0
KTAS 160342Z 18008KT 06/M00 A302 RMK A01 T00621003  RH  063%=      5-min Rain = 0
KTAS 160343Z 18008KT 06/M00 A302 RMK A01 T00611003  RH  063%=      5-min Rain = 0
KTAS 160344Z 18008KT 06/M00 A302 RMK A01 T00611003  RH  063%=      5-min Rain = 0
KTAS 160345Z 18008KT 06/M00 A302 RMK A01 T00611004  RH  063%=      5-min Rain = 0
KTAS 160346Z 18008KT 06/M00 A302 RMK A01 T00601004  RH  064%=      5-min Rain = 0
KTAS 160347Z 18008KT 06/M00 A302 RMK A01 T00591004  RH  064%=      5-min Rain = 0
KTAS 160348Z 19008KT 06/M00 A302 RMK A01 T00591004  RH  064%=      5-min Rain = 0
KTAS 160349Z 19007KT 06/M00 A302 RMK A01 T00591004  RH  064%=      5-min Rain = 0
KTAS 160350Z 19008KT 06/M00 A302 RMK A01 T00581004  RH  064%=      5-min Rain = 0
KTAS 160351Z 19008KT 06/M01 A302 RMK A01 T00571005  RH  064%=      5-min Rain = 0
KTAS 160352Z 19008KT 06/M01 A302 RMK A01 T00571005  RH  065%=      5-min Rain = 0
KTAS 160353Z 19008KT 06/M01 A302 RMK A01 T00571005  RH  065%=      5-min Rain = 0
KTAS 160354Z 19008KT 06/M00 A302 RMK A01 T00571004  RH  065%=      5-min Rain = 0
KTAS 160355Z 19008KT 06/M00 A302 RMK A01 T00571004  RH  065%=      5-min Rain = 0
KTAS 160356Z 19008KT 06/M00 A302 RMK A01 T00571004  RH  065%=      5-min Rain = 0
KTAS 160357Z 19008KT 06/M00 A302 RMK A01 T00581004  RH  064%=      5-min Rain = 0
KTAS 160358Z 19008KT 06/M00 A302 RMK A01 T00581004  RH  064%=      5-min Rain = 0
KTAS 160359Z 19009KT 06/M00 A302 RMK A01 T00571004  RH  065%=      5-min Rain = 0
KTAS 160400Z 19008KT 06/M00 A302 RMK A01 T00581004  RH  065%=      5-min Rain = 0
KTAS 160401Z 19008KT 06/M00 A302 RMK A01 T00581004  RH  065%=      5-min Rain = 0
KTAS 160402Z 19008KT 06/M00 A302 RMK A01 T00571004  RH  065%=      5-min Rain = 0
KTAS 160403Z 18008KT 06/M00 A302 RMK A01 T00571004  RH  065%=      5-min Rain = 0
KTAS 160404Z 19008KT 06/M00 A302 RMK A01 T00571004  RH  065%=      5-min Rain = 0
KTAS 160405Z 19008KT 06/M00 A302 RMK A01 T00571004  RH  065%=      5-min Rain = 0
KTAS 160406Z 19008KT 06/M00 A302 RMK A01 T00571004  RH  065%=      5-min Rain = 0
KTAS 160407Z 19008KT 06/M00 A302 RMK A01 T00561004  RH  065%=      5-min Rain = 0
KTAS 160408Z 19007KT 06/M00 A302 RMK A01 T00561004  RH  065%=      5-min Rain = 0
KTAS 160409Z 18008KT 06/M00 A302 RMK A01 T00551004  RH  066%=      5-min Rain = 0
KTAS 160410Z 19008KT 05/M00 A302 RMK A01 T00541004  RH  066%=      5-min Rain = 0
KTAS 160411Z 19008KT 05/M00 A302 RMK A01 T00541004  RH  066%=      5-min Rain = 0
KTAS 160412Z 19008KT 05/M00 A302 RMK A01 T00541004  RH  066%=      5-min Rain = 0
KTAS 160413Z 19008KT 05/M00 A302 RMK A01 T00531004  RH  066%=      5-min Rain = 0
KTAS 160414Z 19008KT 05/M00 A302 RMK A01 T00531004  RH  067%=      5-min Rain = 0
KTAS 160415Z 18007KT 05/M00 A302 RMK A01 T00531004  RH  067%=      5-min Rain = 0
KTAS 160416Z 19008KT 05/M00 A302 RMK A01 T00521004  RH  067%=      5-min Rain = 0
KTAS 160417Z 19007KT 05/M00 A302 RMK A01 T00521004  RH  067%=      5-min Rain = 0
KTAS 160418Z 19007KT 05/M01 A302 RMK A01 T00521005  RH  067%=      5-min Rain = 0
KTAS 160419Z 19007KT 05/M01 A302 RMK A01 T00511005  RH  067%=      5-min Rain = 0
KTAS 160420Z 19007KT 05/M01 A302 RMK A01 T00511005  RH  067%=      5-min Rain = 0
KTAS 160421Z 18008KT 05/M01 A302 RMK A01 T00511005  RH  067%=      5-min Rain = 0
KTAS 160422Z 19008KT 05/M00 A302 RMK A01 T00511004  RH  067%=      5-min Rain = 0
KTAS 160423Z 19007KT 05/M00 A302 RMK A01 T00511004  RH  067%=      5-min Rain = 0
KTAS 160424Z 19007KT 05/M01 A302 RMK A01 T00511005  RH  067%=      5-min Rain = 0
KTAS 160425Z 19008KT 05/M01 A302 RMK A01 T00511005  RH  067%=      5-min Rain = 0
KTAS 160426Z 19008KT 05/M01 A302 RMK A01 T00511005  RH  067%=      5-min Rain = 0
KTAS 160427Z 19008KT 05/M01 A302 RMK A01 T00511005  RH  067%=      5-min Rain = 0
KTAS 160428Z 19008KT 05/M01 A302 RMK A01 T00511005  RH  067%=      5-min Rain = 0
KTAS 160429Z 19008KT 05/M01 A302 RMK A01 T00521005  RH  067%=      5-min Rain = 0
KTAS 160430Z 19008KT 05/M01 A302 RMK A01 T00531005  RH  066%=      5-min Rain = 0
KTAS 160431Z 19008KT 05/M01 A302 RMK A01 T00531005  RH  066%=      5-min Rain = 0
KTAS 160432Z 19008KT 05/M01 A302 RMK A01 T00541005  RH  066%=      5-min Rain = 0
KTAS 160433Z 19008KT 05/M01 A302 RMK A01 T00541005  RH  066%=      5-min Rain = 0
KTAS 160434Z 19008KT 06/M01 A302 RMK A01 T00551005  RH  066%=      5-min Rain = 0
KTAS 160435Z 19008KT 05/M01 A302 RMK A01 T00541005  RH  066%=      5-min Rain = 0
KTAS 160436Z 19008KT 05/M01 A302 RMK A01 T00541005  RH  066%=      5-min Rain = 0
KTAS 160437Z 19008KT 06/M00 A302 RMK A01 T00551004  RH  066%=      5-min Rain = 0
KTAS 160438Z 19008KT 06/M00 A302 RMK A01 T00551004  RH  066%=      5-min Rain = 0
KTAS 160439Z 19008KT 06/M00 A302 RMK A01 T00551004  RH  066%=      5-min Rain = 0
KTAS 160440Z 19008KT 05/M01 A302 RMK A01 T00541005  RH  066%=      5-min Rain = 0
KTAS 160441Z 19008KT 05/M01 A302 RMK A01 T00541005  RH  066%=      5-min Rain = 0
KTAS 160442Z 19008KT 05/M01 A302 RMK A01 T00541005  RH  066%=      5-min Rain = 0
KTAS 160443Z 19008KT 05/M01 A302 RMK A01 T00541005  RH  066%=      5-min Rain = 0
KTAS 160444Z 19008KT 05/M01 A3021 RMK A01 T00541005  RH  066%=      5-min Rain = 0
KTAS 160445Z 19008KT 05/M01 A3021 RMK A01 T00541005  RH  066%=      5-min Rain = 0
KTAS 160446Z 20008KT 05/M01 A3021 RMK A01 T00541005  RH  066%=      5-min Rain = 0
KTAS 160447Z 20008KT 05/M01 A302 RMK A01 T00541005  RH  066%=      5-min Rain = 0
KTAS 160448Z 20007KT 05/M01 A302 RMK A01 T00541005  RH  066%=      5-min Rain = 0
KTAS 160449Z 20007KT 05/M01 A302 RMK A01 T00541005  RH  066%=      5-min Rain = 0
KTAS 160450Z 20007KT 05/M01 A302 RMK A01 T00531006  RH  066%=      5-min Rain = 0
KTAS 160451Z 20007KT 05/M01 A302 RMK A01 T00531006  RH  066%=      5-min Rain = 0
KTAS 160452Z 20007KT 05/M01 A302 RMK A01 T00531006  RH  066%=      5-min Rain = 0
KTAS 160453Z 20007KT 05/M01 A302 RMK A01 T00531006  RH  066%=      5-min Rain = 0
KTAS 160454Z 20006KT 05/M01 A302 RMK A01 T00531006  RH  066%=      5-min Rain = 0
KTAS 160455Z 20006KT 05/M01 A302 RMK A01 T00531006  RH  066%=      5-min Rain = 0
KTAS 160456Z 20006KT 05/M01 A302 RMK A01 T00521006  RH  066%=      5-min Rain = 0
KTAS 160457Z 20006KT 05/M01 A302 RMK A01 T00511006  RH  066%=      5-min Rain = 0
KTAS 160458Z 20006KT 05/M01 A302 RMK A01 T00511007  RH  066%=      5-min Rain = 0
KTAS 160459Z 20006KT 05/M01 A302 RMK A01 T00501007  RH  066%=      5-min Rain = 0
KTAS 160500Z 20006KT 05/M01 A302 RMK A01 T00501007  RH  067%=      5-min Rain = 0
KTAS 160501Z 20006KT 05/M01 A302 RMK A01 T00501007  RH  066%=      5-min Rain = 0
KTAS 160502Z 21006KT 05/M01 A302 RMK A01 T00511007  RH  066%=      5-min Rain = 0
KTAS 160503Z 20006KT 05/M01 A302 RMK A01 T00511008  RH  066%=      5-min Rain = 0
KTAS 160504Z 20006KT 05/M01 A302 RMK A01 T00501008  RH  066%=      5-min Rain = 0
KTAS 160505Z 20006KT 05/M01 A302 RMK A01 T00501007  RH  066%=      5-min Rain = 0
KTAS 160506Z 20007KT 05/M01 A302 RMK A01 T00501008  RH  066%=      5-min Rain = 0
KTAS 160507Z 20007KT 05/M01 A302 RMK A01 T00501008  RH  067%=      5-min Rain = 0
KTAS 160508Z 20007KT 05/M01 A302 RMK A01 T00491008  RH  066%=      5-min Rain = 0
KTAS 160509Z 20007KT 05/M01 A302 RMK A01 T00501008  RH  066%=      5-min Rain = 0
KTAS 160510Z 20007KT 05/M01 A302 RMK A01 T00501008  RH  066%=      5-min Rain = 0
KTAS 160511Z 20007KT 05/M01 A302 RMK A01 T00511008  RH  066%=      5-min Rain = 0
KTAS 160512Z 20007KT 05/M01 A302 RMK A01 T00511008  RH  066%=      5-min Rain = 0
KTAS 160513Z 20007KT 05/M01 A302 RMK A01 T00521008  RH  065%=      5-min Rain = 0
KTAS 160514Z 20007KT 05/M01 A302 RMK A01 T00531008  RH  065%=      5-min Rain = 0
KTAS 160515Z 20007KT 05/M01 A302 RMK A01 T00531007  RH  065%=      5-min Rain = 0
KTAS 160516Z 20007KT 05/M01 A302 RMK A01 T00531007  RH  065%=      5-min Rain = 0
KTAS 160517Z 20007KT 05/M01 A302 RMK A01 T00531007  RH  065%=      5-min Rain = 0
KTAS 160518Z 20006KT 05/M01 A302 RMK A01 T00531007  RH  065%=      5-min Rain = 0
KTAS 160519Z 20006KT 05/M01 A302 RMK A01 T00531007  RH  065%=      5-min Rain = 0
KTAS 160520Z 20006KT 05/M01 A302 RMK A01 T00531007  RH  065%=      5-min Rain = 0
KTAS 160521Z 20006KT 05/M01 A302 RMK A01 T00531007  RH  065%=      5-min Rain = 0
KTAS 160522Z 20006KT 05/M01 A302 RMK A01 T00521007  RH  065%=      5-min Rain = 0
KTAS 160523Z 20006KT 05/M01 A302 RMK A01 T00511008  RH  066%=      5-min Rain = 0
KTAS 160524Z 20006KT 05/M01 A302 RMK A01 T00521008  RH  066%=      5-min Rain = 0
KTAS 160525Z 20006KT 05/M01 A302 RMK A01 T00521008  RH  066%=      5-min Rain = 0
KTAS 160526Z 20006KT 05/M01 A302 RMK A01 T00521007  RH  065%=      5-min Rain = 0
KTAS 160527Z 20006KT 05/M01 A302 RMK A01 T00521008  RH  065%=      5-min Rain = 0
KTAS 160528Z 20007KT 05/M01 A302 RMK A01 T00521007  RH  066%=      5-min Rain = 0
KTAS 160529Z 20006KT 05/M01 A302 RMK A01 T00521007  RH  065%=      5-min Rain = 0
KTAS 160530Z 20007KT 05/M01 A302 RMK A01 T00521007  RH  066%=      5-min Rain = 0
KTAS 160531Z 20006KT 05/M01 A302 RMK A01 T00511007  RH  066%=      5-min Rain = 0
KTAS 160532Z 20006KT 05/M01 A302 RMK A01 T00501008  RH  066%=      5-min Rain = 0
KTAS 160533Z 20006KT 05/M01 A302 RMK A01 T00491008  RH  067%=      5-min Rain = 0
KTAS 160534Z 20006KT 05/M01 A302 RMK A01 T00481008  RH  067%=      5-min Rain = 0
KTAS 160535Z 20006KT 05/M01 A302 RMK A01 T00471008  RH  067%=      5-min Rain = 0
KTAS 160536Z 20006KT 05/M01 A302 RMK A01 T00461008  RH  068%=      5-min Rain = 0
KTAS 160537Z 20006KT 05/M01 A3019 RMK A01 T00451008  RH  068%=      5-min Rain = 0
KTAS 160538Z 20006KT 04/M01 A3019 RMK A01 T00441008  RH  069%=      5-min Rain = 0
KTAS 160539Z 20007KT 04/M01 A3019 RMK A01 T00431008  RH  069%=      5-min Rain = 0
KTAS 160540Z 20007KT 04/M01 A3019 RMK A01 T00431008  RH  069%=      5-min Rain = 0
KTAS 160541Z 20007KT 04/M01 A3019 RMK A01 T00431008  RH  070%=      5-min Rain = 0
KTAS 160542Z 19007KT 04/M01 A3019 RMK A01 T00431008  RH  070%=      5-min Rain = 0
KTAS 160543Z 19007KT 04/M01 A3019 RMK A01 T00431007  RH  070%=      5-min Rain = 0
KTAS 160544Z 19007KT 04/M01 A3019 RMK A01 T00441008  RH  069%=      5-min Rain = 0
KTAS 160545Z 19007KT 04/M01 A3019 RMK A01 T00441008  RH  069%=      5-min Rain = 0
KTAS 160546Z 19007KT 04/M01 A3019 RMK A01 T00431008  RH  069%=      5-min Rain = 0
KTAS 160547Z 19007KT 04/M01 A3019 RMK A01 T00441008  RH  069%=      5-min Rain = 0
KTAS 160548Z 19007KT 04/M01 A3019 RMK A01 T00441008  RH  069%=      5-min Rain = 0
KTAS 160549Z 19007KT 04/M01 A3019 RMK A01 T00441008  RH  069%=      5-min Rain = 0
KTAS 160550Z 19007KT 04/M01 A3019 RMK A01 T00441008  RH  069%=      5-min Rain = 0
KTAS 160551Z 19007KT 04/M01 A3019 RMK A01 T00441008  RH  069%=      5-min Rain = 0
KTAS 160552Z 20007KT 04/M01 A3019 RMK A01 T00441008  RH  069%=      5-min Rain = 0
KTAS 160553Z 20007KT 04/M01 A3019 RMK A01 T00441007  RH  069%=      5-min Rain = 0
KTAS 160554Z 19007KT 04/M01 A3019 RMK A01 T00441008  RH  069%=      5-min Rain = 0
KTAS 160555Z 19008KT 05/M01 A3019 RMK A01 T00451007  RH  069%=      5-min Rain = 0
KTAS 160556Z 19008KT 05/M01 A3019 RMK A01 T00451007  RH  069%=      5-min Rain = 0
KTAS 160557Z 19008KT 05/M01 A3019 RMK A01 T00451007  RH  069%=      5-min Rain = 0
KTAS 160558Z 19008KT 05/M01 A3019 RMK A01 T00461007  RH  069%=      5-min Rain = 0
KTAS 160559Z 19008KT 05/M01 A3019 RMK A01 T00461007  RH  069%=      5-min Rain = 0

Page generated in 0.0812 seconds.